Time,TemperatureF,DewpointF,PressureIn,WindDirection,WindDirectionDegrees,WindSpeedMPH,WindSpeedGustMPH,Humidity,HourlyPrecipIn,Conditions,Clouds,dailyrainin,SoftwareType,DateUTC
2013-05-02 00:00:00,32.0,32.0,30.67,NNW,337,13.4,19.6,100,0.00,RA,,0.00,WeatherDisplay:10.37,2013-05-02 05:00:00,
2013-05-02 00:01:00,32.0,32.0,30.67,NNW,337,13.4,17.3,100,0.00,RA,,0.00,WeatherDisplay:10.37,2013-05-02 05:01:00,
2013-05-02 00:06:00,32.0,32.0,30.67,NNW,337,15.1,20.7,100,0.00,RA,,0.00,WeatherDisplay:10.37,2013-05-02 05:06:00,
2013-05-02 00:07:00,32.0,32.0,30.68,NNW,337,15.7,19.6,100,0.00,RA,,0.00,WeatherDisplay:10.37,2013-05-02 05:07:00,
2013-05-02 00:11:00,32.0,32.0,30.68,North,360,5.4,16.1,100,0.00,CLR,,0.00,WeatherDisplay:10.37,2013-05-02 05:11:00,
2013-05-02 00:12:00,32.0,32.0,30.68,NNW,337,13.3,15.0,100,0.00,CLR,,0.00,WeatherDisplay:10.37,2013-05-02 05:12:00,
2013-05-02 00:16:00,32.0,32.0,30.69,NNW,337,11.5,16.1,100,0.00,CLR,,0.00,WeatherDisplay:10.37,2013-05-02 05:16:00,
2013-05-02 00:17:00,32.0,32.0,30.69,NNW,337,8.3,11.5,100,0.00,CLR,,0.00,WeatherDisplay:10.37,2013-05-02 05:17:00,
2013-05-02 00:21:00,32.0,32.0,30.69,NNW,337,10.1,12.7,100,0.00,CLR,,0.00,WeatherDisplay:10.37,2013-05-02 05:21:00,
2013-05-02 00:22:00,32.0,32.0,30.69,NNW,337,11.2,15.0,100,0.00,CLR,,0.00,WeatherDisplay:10.37,2013-05-02 05:22:00,
2013-05-02 00:26:00,32.0,32.0,30.70,NNW,337,10.9,18.4,100,0.00,CLR,,0.00,WeatherDisplay:10.37,2013-05-02 05:26:00,
2013-05-02 00:27:00,32.0,32.0,30.70,NNE,22,11.0,16.1,100,0.00,CLR,,0.00,WeatherDisplay:10.37,2013-05-02 05:27:00,
2013-05-02 00:31:00,32.0,32.0,30.70,North,360,12.7,18.4,100,0.00,CLR,,0.00,WeatherDisplay:10.37,2013-05-02 05:31:00,
2013-05-02 00:32:00,32.0,32.0,30.70,North,360,11.6,16.1,100,0.00,CLR,,0.00,WeatherDisplay:10.37,2013-05-02 05:32:00,
2013-05-02 00:36:00,32.0,32.0,30.69,NNW,337,11.0,15.0,100,0.00,CLR,,0.00,WeatherDisplay:10.37,2013-05-02 05:36:00,
2013-05-02 00:37:00,32.0,32.0,30.69,NNW,337,13.5,19.0,100,0.00,CLR,,0.00,WeatherDisplay:10.37,2013-05-02 05:37:00,
2013-05-02 00:38:00,32.0,32.0,30.69,NNW,337,11.9,20.7,100,0.00,CLR,,0.00,WeatherDisplay:10.37,2013-05-02 05:38:00,
2013-05-02 00:41:00,32.0,32.0,30.69,WSW,247,7.2,17.3,100,0.00,CLR,,0.00,WeatherDisplay:10.37,2013-05-02 05:41:00,
2013-05-02 00:42:00,32.0,32.0,30.69,North,360,11.9,19.6,100,0.00,CLR,,0.00,WeatherDisplay:10.37,2013-05-02 05:42:00,
2013-05-02 00:44:00,32.0,32.0,30.69,NNW,337,12.8,18.4,100,0.00,CLR,,0.00,WeatherDisplay:10.37,2013-05-02 05:44:00,
2013-05-02 00:46:00,32.0,32.0,30.70,NNE,22,12.8,20.7,100,0.00,CLR,,0.00,WeatherDisplay:10.37,2013-05-02 05:46:00,
2013-05-02 00:47:00,32.0,32.0,30.70,NNW,337,12.0,19.6,100,0.00,CLR,,0.00,WeatherDisplay:10.37,2013-05-02 05:47:00,
2013-05-02 00:48:00,32.0,32.0,30.70,North,360,12.4,17.3,100,0.00,CLR,,0.00,WeatherDisplay:10.37,2013-05-02 05:48:00,
2013-05-02 00:49:00,32.0,32.0,30.70,NNW,337,13.3,17.3,100,0.00,CLR,,0.00,WeatherDisplay:10.37,2013-05-02 05:49:00,
2013-05-02 00:51:00,32.0,32.0,30.70,NNE,22,11.1,19.6,100,0.00,CLR,,0.00,WeatherDisplay:10.37,2013-05-02 05:51:00,
2013-05-02 00:52:00,32.0,32.0,30.70,NNW,337,11.6,15.0,100,0.00,CLR,,0.00,WeatherDisplay:10.37,2013-05-02 05:52:00,
2013-05-02 00:53:00,32.0,32.0,30.70,NNW,337,13.5,18.0,100,0.00,CLR,,0.00,WeatherDisplay:10.37,2013-05-02 05:53:00,
2013-05-02 00:54:00,32.0,32.0,30.70,NNW,337,11.4,20.7,100,0.00,CLR,,0.00,WeatherDisplay:10.37,2013-05-02 05:54:00,
2013-05-02 00:56:00,32.0,32.0,30.70,North,360,11.0,23.0,100,0.00,CLR,,0.00,WeatherDisplay:10.37,2013-05-02 05:56:00,
2013-05-02 00:57:00,32.0,32.0,30.70,NNE,22,11.5,16.1,100,0.00,CLR,,0.00,WeatherDisplay:10.37,2013-05-02 05:57:00,
2013-05-02 00:58:00,32.0,32.0,30.70,NNW,337,10.7,16.1,100,0.00,CLR,,0.00,WeatherDisplay:10.37,2013-05-02 05:58:00,
2013-05-02 00:59:00,32.0,32.0,30.70,NNW,337,10.1,14.0,100,0.00,CLR,,0.00,WeatherDisplay:10.37,2013-05-02 05:59:00,
2013-05-02 01:01:00,32.0,32.0,30.70,NNW,337,11.9,17.3,100,0.00,CLR,,0.00,WeatherDisplay:10.37,2013-05-02 06:01:00,
2013-05-02 01:02:00,32.0,32.0,30.70,North,360,10.9,16.1,100,0.00,CLR,,0.00,WeatherDisplay:10.37,2013-05-02 06:02:00,
2013-05-02 01:03:00,32.0,32.0,30.70,NNW,337,11.8,19.6,100,0.00,CLR,,0.00,WeatherDisplay:10.37,2013-05-02 06:03:00,
2013-05-02 01:04:00,32.0,32.0,30.70,NNW,337,6.3,15.0,100,0.00,CLR,,0.00,WeatherDisplay:10.37,2013-05-02 06:04:00,
2013-05-02 01:07:00,32.0,32.0,30.71,NNW,337,11.3,16.1,100,0.00,CLR,,0.00,WeatherDisplay:10.37,2013-05-02 06:07:00,
2013-05-02 01:08:00,32.0,32.0,30.71,NNW,337,14.2,16.1,100,0.00,CLR,,0.00,WeatherDisplay:10.37,2013-05-02 06:08:00,
2013-05-02 01:09:00,32.0,32.0,30.71,NNE,22,11.5,18.4,100,0.00,CLR,,0.00,WeatherDisplay:10.37,2013-05-02 06:09:00,
2013-05-02 01:12:00,32.0,32.0,30.71,North,360,13.9,19.6,100,0.00,CLR,,0.00,WeatherDisplay:10.37,2013-05-02 06:12:00,
2013-05-02 01:13:00,32.0,32.0,30.71,NNW,337,14.8,19.6,100,0.00,CLR,,0.00,WeatherDisplay:10.37,2013-05-02 06:13:00,
2013-05-02 01:14:00,32.0,32.0,30.71,NNE,22,14.1,18.4,100,0.00,CLR,,0.00,WeatherDisplay:10.37,2013-05-02 06:14:00,
2013-05-02 01:15:00,32.0,32.0,30.71,NNE,22,14.5,19.0,100,0.00,CLR,,0.00,WeatherDisplay:10.37,2013-05-02 06:15:00,
2013-05-02 01:17:00,32.0,32.0,30.70,NNW,337,7.6,17.3,100,0.00,CLR,,0.00,WeatherDisplay:10.37,2013-05-02 06:17:00,
2013-05-02 01:18:00,32.0,32.0,30.70,NNW,337,10.1,15.0,100,0.00,CLR,,0.00,WeatherDisplay:10.37,2013-05-02 06:18:00,
2013-05-02 01:19:00,32.0,32.0,30.70,NNE,22,10.2,12.7,100,0.00,CLR,,0.00,WeatherDisplay:10.37,2013-05-02 06:19:00,
2013-05-02 01:20:00,32.0,32.0,30.70,North,360,14.3,20.0,100,0.00,CLR,,0.00,WeatherDisplay:10.37,2013-05-02 06:20:00,
2013-05-02 01:22:00,32.0,32.0,30.70,NNE,22,10.0,13.8,100,0.00,CLR,,0.00,WeatherDisplay:10.37,2013-05-02 06:22:00,
2013-05-02 01:23:00,32.0,32.0,30.70,NNW,337,9.9,13.8,100,0.00,CLR,,0.00,WeatherDisplay:10.37,2013-05-02 06:23:00,
2013-05-02 01:24:00,32.0,32.0,30.70,NNE,22,10.7,15.0,100,0.00,CLR,,0.00,WeatherDisplay:10.37,2013-05-02 06:24:00,
2013-05-02 01:25:00,32.0,32.0,30.70,NNW,337,12.8,17.3,100,0.00,CLR,,0.00,WeatherDisplay:10.37,2013-05-02 06:25:00,
2013-05-02 01:28:00,32.0,32.0,30.71,North,360,9.7,14.0,100,0.00,CLR,,0.00,WeatherDisplay:10.37,2013-05-02 06:28:00,
2013-05-02 01:29:00,32.0,32.0,30.71,North,360,11.0,15.0,100,0.00,CLR,,0.00,WeatherDisplay:10.37,2013-05-02 06:29:00,
2013-05-02 01:31:00,32.0,32.0,30.71,NNW,337,8.7,12.7,100,0.00,CLR,,0.00,WeatherDisplay:10.37,2013-05-02 06:31:00,
2013-05-02 01:33:00,32.0,32.0,30.71,NNE,22,9.5,13.0,100,0.00,CLR,,0.00,WeatherDisplay:10.37,2013-05-02 06:33:00,
2013-05-02 01:34:00,32.0,32.0,30.71,North,360,10.4,12.7,100,0.00,CLR,,0.00,WeatherDisplay:10.37,2013-05-02 06:34:00,
2013-05-02 01:36:00,32.0,32.0,30.71,North,360,7.1,10.4,100,0.00,CLR,,0.00,WeatherDisplay:10.37,2013-05-02 06:36:00,
2013-05-02 01:38:00,32.0,32.0,30.69,NNW,337,11.4,15.0,100,0.00,CLR,,0.00,WeatherDisplay:10.37,2013-05-02 06:38:00,
2013-05-02 01:39:00,32.0,32.0,30.69,NNW,337,11.1,15.0,100,0.00,CLR,,0.00,WeatherDisplay:10.37,2013-05-02 06:39:00,
2013-05-02 01:41:00,32.0,32.0,30.69,NNW,337,9.7,11.5,100,0.00,CLR,,0.00,WeatherDisplay:10.37,2013-05-02 06:41:00,
2013-05-02 01:43:00,32.0,32.0,30.69,NNE,22,9.7,13.8,100,0.00,CLR,,0.00,WeatherDisplay:10.37,2013-05-02 06:43:00,
2013-05-02 01:44:00,32.0,32.0,30.69,NNE,22,8.0,11.5,100,0.00,CLR,,0.00,WeatherDisplay:10.37,2013-05-02 06:44:00,
2013-05-02 01:45:00,32.0,32.0,30.69,NNW,337,8.2,11.5,100,0.00,CLR,,0.00,WeatherDisplay:10.37,2013-05-02 06:45:00,
2013-05-02 01:46:00,32.0,32.0,30.70,North,360,9.0,11.5,100,0.00,CLR,,0.00,WeatherDisplay:10.37,2013-05-02 06:46:00,
2013-05-02 01:48:00,32.0,32.0,30.70,NNW,337,8.2,10.4,100,0.00,CLR,,0.00,WeatherDisplay:10.37,2013-05-02 06:48:00,
2013-05-02 01:50:00,32.0,32.0,30.70,NNW,337,7.6,11.5,100,0.00,CLR,,0.00,WeatherDisplay:10.37,2013-05-02 06:50:00,
2013-05-02 01:51:00,32.0,32.0,30.70,NNW,337,7.1,9.2,100,0.00,CLR,,0.00,WeatherDisplay:10.37,2013-05-02 06:51:00,
2013-05-02 01:53:00,32.0,32.0,30.70,NNW,337,8.8,13.0,100,0.00,CLR,,0.00,WeatherDisplay:10.37,2013-05-02 06:53:00,
2013-05-02 01:54:00,32.0,32.0,30.70,NNW,337,8.1,12.7,100,0.00,CLR,,0.00,WeatherDisplay:10.37,2013-05-02 06:54:00,
2013-05-02 01:57:00,32.0,32.0,30.71,NNW,337,7.9,10.4,100,0.00,CLR,,0.00,WeatherDisplay:10.37,2013-05-02 06:57:00,
2013-05-02 01:58:00,32.0,32.0,30.71,NNW,337,8.3,9.2,100,0.00,CLR,,0.00,WeatherDisplay:10.37,2013-05-02 06:58:00,
2013-05-02 02:00:00,32.0,32.0,30.71,NNW,337,6.5,9.2,100,0.00,CLR,,0.00,WeatherDisplay:10.37,2013-05-02 07:00:00,
2013-05-02 02:02:00,32.0,32.0,30.71,NNW,337,8.6,11.5,100,0.00,CLR,,0.00,WeatherDisplay:10.37,2013-05-02 07:02:00,
2013-05-02 02:03:00,32.0,32.0,30.71,North,360,9.3,10.4,100,0.00,CLR,,0.00,WeatherDisplay:10.37,2013-05-02 07:03:00,
2013-05-02 02:06:00,32.0,32.0,30.70,NNE,22,4.6,11.5,100,0.00,CLR,,0.00,WeatherDisplay:10.37,2013-05-02 07:06:00,
2013-05-02 02:07:00,32.0,32.0,30.70,North,360,7.7,10.4,100,0.00,CLR,,0.00,WeatherDisplay:10.37,2013-05-02 07:07:00,
2013-05-02 02:08:00,32.0,32.0,30.70,NNW,337,7.3,10.4,100,0.00,CLR,,0.00,WeatherDisplay:10.37,2013-05-02 07:08:00,
2013-05-02 02:11:00,32.0,32.0,30.70,NNW,337,8.7,11.5,100,0.00,CLR,,0.00,WeatherDisplay:10.37,2013-05-02 07:11:00,
2013-05-02 02:12:00,32.0,32.0,30.70,NNW,337,10.7,12.7,100,0.00,CLR,,0.00,WeatherDisplay:10.37,2013-05-02 07:12:00,
2013-05-02 02:13:00,32.0,32.0,30.70,NNW,337,10.3,15.0,100,0.00,CLR,,0.00,WeatherDisplay:10.37,2013-05-02 07:13:00,
2013-05-02 02:16:00,32.0,32.0,30.71,NNW,337,10.3,13.0,100,0.00,CLR,,0.00,WeatherDisplay:10.37,2013-05-02 07:16:00,
2013-05-02 02:17:00,32.0,32.0,30.71,NNW,337,11.2,15.0,100,0.00,CLR,,0.00,WeatherDisplay:10.37,2013-05-02 07:17:00,
2013-05-02 02:18:00,32.0,32.0,30.71,NNW,337,10.5,15.0,100,0.00,CLR,,0.00,WeatherDisplay:10.37,2013-05-02 07:18:00,
2013-05-02 02:21:00,32.0,32.0,30.71,North,360,7.1,10.4,100,0.00,CLR,,0.00,WeatherDisplay:10.37,2013-05-02 07:21:00,
2013-05-02 02:22:00,32.0,32.0,30.71,NNE,22,6.9,9.2,100,0.00,CLR,,0.00,WeatherDisplay:10.37,2013-05-02 07:22:00,
2013-05-02 02:23:00,32.0,32.0,30.71,North,360,7.2,9.2,100,0.00,CLR,,0.00,WeatherDisplay:10.37,2013-05-02 07:23:00,
2013-05-02 02:27:00,32.0,32.0,30.71,NNW,337,8.1,10.4,100,0.00,CLR,,0.00,WeatherDisplay:10.37,2013-05-02 07:27:00,
2013-05-02 02:28:00,32.0,32.0,30.71,NNE,22,5.1,6.9,100,0.00,CLR,,0.00,WeatherDisplay:10.37,2013-05-02 07:28:00,
2013-05-02 02:29:00,32.0,32.0,30.71,NNW,337,7.4,9.2,100,0.00,CLR,,0.00,WeatherDisplay:10.37,2013-05-02 07:29:00,
2013-05-02 02:32:00,32.0,32.0,30.71,North,360,7.4,10.4,100,0.00,CLR,,0.00,WeatherDisplay:10.37,2013-05-02 07:32:00,
2013-05-02 02:33:00,32.0,32.0,30.71,NNW,337,10.0,12.7,100,0.00,CLR,,0.00,WeatherDisplay:10.37,2013-05-02 07:33:00,
2013-05-02 02:34:00,32.0,32.0,30.71,NNW,337,7.5,11.5,100,0.00,CLR,,0.00,WeatherDisplay:10.37,2013-05-02 07:34:00,
2013-05-02 02:37:00,32.0,32.0,30.70,NNW,337,7.8,10.4,100,0.00,CLR,,0.00,WeatherDisplay:10.37,2013-05-02 07:37:00,
2013-05-02 02:38:00,32.0,32.0,30.70,NNW,337,9.5,11.5,100,0.00,CLR,,0.00,WeatherDisplay:10.37,2013-05-02 07:38:00,
2013-05-02 02:39:00,32.0,32.0,30.70,NNE,22,10.4,11.5,100,0.00,CLR,,0.00,WeatherDisplay:10.37,2013-05-02 07:39:00,
2013-05-02 02:42:00,32.0,32.0,30.70,North,360,10.2,12.7,100,0.00,CLR,,0.00,WeatherDisplay:10.37,2013-05-02 07:42:00,
2013-05-02 02:43:00,32.0,32.0,30.70,NNW,337,10.7,13.8,100,0.00,CLR,,0.00,WeatherDisplay:10.37,2013-05-02 07:43:00,
2013-05-02 02:44:00,32.0,32.0,30.70,North,360,10.4,16.1,100,0.00,CLR,,0.00,WeatherDisplay:10.37,2013-05-02 07:44:00,
2013-05-02 02:47:00,32.0,32.0,30.70,North,360,9.0,10.4,100,0.00,CLR,,0.00,WeatherDisplay:10.37,2013-05-02 07:47:00,
2013-05-02 02:48:00,32.0,32.0,30.70,NNW,337,8.2,10.4,100,0.00,CLR,,0.00,WeatherDisplay:10.37,2013-05-02 07:48:00,
2013-05-02 02:49:00,32.0,32.0,30.70,NNW,337,9.0,11.5,100,0.00,CLR,,0.00,WeatherDisplay:10.37,2013-05-02 07:49:00,
2013-05-02 02:53:00,32.0,32.0,30.70,NNW,337,9.9,11.5,100,0.00,CLR,,0.00,WeatherDisplay:10.37,2013-05-02 07:53:00,
2013-05-02 02:54:00,32.0,32.0,30.70,NNW,337,10.4,12.0,100,0.00,CLR,,0.00,WeatherDisplay:10.37,2013-05-02 07:54:00,
2013-05-02 02:58:00,32.0,32.0,30.71,NNW,337,12.7,16.1,100,0.01,RA,,0.01,WeatherDisplay:10.37,2013-05-02 07:58:00,
2013-05-02 02:59:00,32.0,32.0,30.71,NNW,337,12.0,15.0,100,0.01,RA,,0.01,WeatherDisplay:10.37,2013-05-02 07:59:00,
2013-05-02 03:03:00,32.0,32.0,30.71,NNW,337,13.5,16.1,100,0.01,RA,,0.01,WeatherDisplay:10.37,2013-05-02 08:03:00,
2013-05-02 03:04:00,33.0,33.0,30.71,NNW,337,13.1,16.1,100,0.01,RA,,0.01,WeatherDisplay:10.37,2013-05-02 08:04:00,
2013-05-02 03:05:00,33.0,33.0,30.71,NNW,337,12.4,15.0,100,0.01,RA,,0.01,WeatherDisplay:10.37,2013-05-02 08:05:00,
2013-05-02 03:08:00,32.0,32.0,30.70,NNW,337,10.2,15.0,100,0.01,CLR,,0.01,WeatherDisplay:10.37,2013-05-02 08:08:00,
2013-05-02 03:09:00,32.0,32.0,30.70,NNW,337,10.0,15.0,100,0.01,CLR,,0.01,WeatherDisplay:10.37,2013-05-02 08:09:00,
2013-05-02 03:10:00,32.0,32.0,30.70,North,360,10.6,15.0,100,0.01,CLR,,0.01,WeatherDisplay:10.37,2013-05-02 08:10:00,
2013-05-02 03:13:00,33.0,33.0,30.70,NNW,337,11.7,15.0,100,0.01,CLR,,0.01,WeatherDisplay:10.37,2013-05-02 08:13:00,
2013-05-02 03:14:00,33.0,33.0,30.70,NNW,337,11.8,16.1,100,0.01,CLR,,0.01,WeatherDisplay:10.37,2013-05-02 08:14:00,
2013-05-02 03:15:00,33.0,33.0,30.70,NNW,337,13.1,17.3,100,0.01,CLR,,0.01,WeatherDisplay:10.37,2013-05-02 08:15:00,
2013-05-02 03:18:00,33.0,33.0,30.69,NNW,337,13.9,19.0,100,0.01,CLR,,0.01,WeatherDisplay:10.37,2013-05-02 08:18:00,
2013-05-02 03:19:00,33.0,33.0,30.69,NNW,337,12.9,19.6,100,0.01,CLR,,0.01,WeatherDisplay:10.37,2013-05-02 08:19:00,
2013-05-02 03:20:00,33.0,33.0,30.69,NNW,337,9.3,18.4,100,0.01,CLR,,0.01,WeatherDisplay:10.37,2013-05-02 08:20:00,
2013-05-02 03:23:00,33.0,33.0,30.69,North,360,13.7,19.6,100,0.01,CLR,,0.01,WeatherDisplay:10.37,2013-05-02 08:23:00,
2013-05-02 03:24:00,33.0,33.0,30.69,NNW,337,12.5,17.3,100,0.01,CLR,,0.01,WeatherDisplay:10.37,2013-05-02 08:24:00,
2013-05-02 03:25:00,33.0,33.0,30.69,North,360,11.9,17.3,100,0.01,CLR,,0.01,WeatherDisplay:10.37,2013-05-02 08:25:00,
2013-05-02 03:29:00,33.0,33.0,30.68,NNW,337,14.4,17.3,100,0.02,RA,,0.02,WeatherDisplay:10.37,2013-05-02 08:29:00,
2013-05-02 03:30:00,33.0,33.0,30.68,NNW,337,15.2,18.4,100,0.02,RA,,0.02,WeatherDisplay:10.37,2013-05-02 08:30:00,
2013-05-02 03:34:00,33.0,33.0,30.68,NNW,337,13.9,16.1,100,0.02,RA,,0.02,WeatherDisplay:10.37,2013-05-02 08:34:00,
2013-05-02 03:35:00,33.0,33.0,30.68,North,360,16.0,19.6,100,0.02,RA,,0.02,WeatherDisplay:10.37,2013-05-02 08:35:00,
2013-05-02 03:36:00,33.0,33.0,30.68,NNW,337,12.6,19.6,100,0.02,RA,,0.02,WeatherDisplay:10.37,2013-05-02 08:36:00,
2013-05-02 03:39:00,33.0,33.0,30.69,NNW,337,11.0,19.6,100,0.02,CLR,,0.02,WeatherDisplay:10.37,2013-05-02 08:39:00,
2013-05-02 03:40:00,33.0,33.0,30.69,NNW,337,11.3,13.8,100,0.02,CLR,,0.02,WeatherDisplay:10.37,2013-05-02 08:40:00,
2013-05-02 03:41:00,33.0,33.0,30.69,NNE,22,15.7,19.6,100,0.02,CLR,,0.02,WeatherDisplay:10.37,2013-05-02 08:41:00,
2013-05-02 03:45:00,33.0,33.0,30.69,North,360,14.1,18.4,100,0.02,CLR,,0.02,WeatherDisplay:10.37,2013-05-02 08:45:00,
2013-05-02 03:46:00,33.0,33.0,30.69,NNW,337,11.9,17.3,100,0.02,CLR,,0.02,WeatherDisplay:10.37,2013-05-02 08:46:00,
2013-05-02 03:50:00,33.0,33.0,30.68,NNW,337,14.9,21.0,100,0.03,RA,,0.03,WeatherDisplay:10.37,2013-05-02 08:50:00,
2013-05-02 03:51:00,33.0,33.0,30.68,NNW,337,15.9,21.9,100,0.03,RA,,0.03,WeatherDisplay:10.37,2013-05-02 08:51:00,
2013-05-02 03:55:00,33.0,33.0,30.68,NNW,337,16.6,20.7,100,0.03,RA,,0.03,WeatherDisplay:10.37,2013-05-02 08:55:00,
2013-05-02 03:56:00,33.0,33.0,30.68,NNW,337,15.5,18.4,100,0.03,RA,,0.03,WeatherDisplay:10.37,2013-05-02 08:56:00,
2013-05-02 04:00:00,33.0,33.0,30.69,North,360,6.6,13.0,100,0.02,CLR,,0.03,WeatherDisplay:10.37,2013-05-02 09:00:00,
2013-05-02 04:01:00,33.0,33.0,30.69,NNE,22,12.6,17.0,100,0.02,CLR,,0.03,WeatherDisplay:10.37,2013-05-02 09:01:00,
2013-05-02 04:06:00,33.0,33.0,30.69,North,360,12.8,15.0,100,0.02,CLR,,0.03,WeatherDisplay:10.37,2013-05-02 09:06:00,
2013-05-02 04:11:00,33.0,33.0,30.69,North,360,11.4,16.1,100,0.02,CLR,,0.03,WeatherDisplay:10.37,2013-05-02 09:11:00,
2013-05-02 04:12:00,33.0,33.0,30.69,NNW,337,13.1,18.4,100,0.02,CLR,,0.03,WeatherDisplay:10.37,2013-05-02 09:12:00,
2013-05-02 04:16:00,33.0,33.0,30.69,NNW,337,10.9,13.8,100,0.03,RA,,0.04,WeatherDisplay:10.37,2013-05-02 09:16:00,
2013-05-02 04:17:00,33.0,33.0,30.70,NNW,337,12.5,16.1,100,0.03,RA,,0.04,WeatherDisplay:10.37,2013-05-02 09:17:00,
2013-05-02 04:21:00,33.0,33.0,30.70,NNW,337,14.2,19.6,100,0.03,RA,,0.04,WeatherDisplay:10.37,2013-05-02 09:21:00,
2013-05-02 04:22:00,33.0,33.0,30.70,North,360,10.8,13.8,100,0.03,RA,,0.04,WeatherDisplay:10.37,2013-05-02 09:22:00,
2013-05-02 04:26:00,33.0,33.0,30.70,NNW,337,11.3,13.8,100,0.03,CLR,,0.04,WeatherDisplay:10.37,2013-05-02 09:26:00,
2013-05-02 04:27:00,33.0,33.0,30.70,NNW,337,10.3,12.7,100,0.03,CLR,,0.04,WeatherDisplay:10.37,2013-05-02 09:27:00,
2013-05-02 04:31:00,33.0,33.0,30.70,NNW,337,10.1,15.0,100,0.02,CLR,,0.04,WeatherDisplay:10.37,2013-05-02 09:31:00,
2013-05-02 04:32:00,33.0,33.0,30.70,NNW,337,13.0,17.3,100,0.03,RA,,0.05,WeatherDisplay:10.37,2013-05-02 09:32:00,
2013-05-02 04:36:00,33.0,33.0,30.71,NNW,337,13.2,16.1,100,0.03,RA,,0.05,WeatherDisplay:10.37,2013-05-02 09:36:00,
2013-05-02 04:37:00,33.0,33.0,30.71,NNW,337,12.3,16.1,100,0.03,RA,,0.05,WeatherDisplay:10.37,2013-05-02 09:37:00,
2013-05-02 04:38:00,33.0,33.0,30.71,NNW,337,12.3,16.1,100,0.03,RA,,0.05,WeatherDisplay:10.37,2013-05-02 09:38:00,
2013-05-02 04:41:00,33.0,33.0,30.71,NNW,337,13.3,19.6,100,0.03,RA,,0.05,WeatherDisplay:10.37,2013-05-02 09:41:00,
2013-05-02 04:42:00,33.0,33.0,30.71,NW,315,13.1,19.6,100,0.03,CLR,,0.05,WeatherDisplay:10.37,2013-05-02 09:42:00,
2013-05-02 04:43:00,33.0,33.0,30.71,North,360,13.3,18.4,100,0.03,CLR,,0.05,WeatherDisplay:10.37,2013-05-02 09:43:00,
2013-05-02 04:46:00,33.0,33.0,30.71,North,360,11.9,15.0,100,0.03,CLR,,0.05,WeatherDisplay:10.37,2013-05-02 09:46:00,
2013-05-02 04:47:00,33.0,33.0,30.71,NNW,337,11.8,16.1,100,0.03,CLR,,0.05,WeatherDisplay:10.37,2013-05-02 09:47:00,
2013-05-02 04:48:00,33.0,33.0,30.71,NNW,337,11.3,13.8,100,0.03,CLR,,0.05,WeatherDisplay:10.37,2013-05-02 09:48:00,
2013-05-02 04:52:00,33.0,33.0,30.71,NNW,337,12.7,16.0,100,0.03,RA,,0.06,WeatherDisplay:10.37,2013-05-02 09:52:00,
2013-05-02 04:53:00,33.0,33.0,30.71,NNW,337,14.1,19.6,100,0.03,RA,,0.06,WeatherDisplay:10.37,2013-05-02 09:53:00,
2013-05-02 04:54:00,33.0,33.0,30.71,NNW,337,12.3,16.1,100,0.03,RA,,0.06,WeatherDisplay:10.37,2013-05-02 09:54:00,
2013-05-02 04:57:00,33.0,33.0,30.73,NNW,337,13.6,19.6,100,0.03,RA,,0.06,WeatherDisplay:10.37,2013-05-02 09:57:00,
2013-05-02 04:58:00,33.0,33.0,30.73,NNW,337,14.6,17.3,100,0.03,RA,,0.06,WeatherDisplay:10.37,2013-05-02 09:58:00,
2013-05-02 04:59:00,33.0,32.8,30.73,NW,315,16.0,19.6,99,0.03,RA,,0.06,WeatherDisplay:10.37,2013-05-02 09:59:00,
2013-05-02 05:02:00,33.0,32.8,30.73,NNW,337,10.7,16.1,99,0.03,CLR,,0.06,WeatherDisplay:10.37,2013-05-02 10:02:00,
2013-05-02 05:03:00,33.0,32.8,30.73,NNW,337,10.3,11.5,99,0.03,CLR,,0.06,WeatherDisplay:10.37,2013-05-02 10:03:00,
2013-05-02 05:04:00,33.0,32.8,30.73,NNW,337,14.8,16.1,99,0.03,CLR,,0.06,WeatherDisplay:10.37,2013-05-02 10:04:00,
2013-05-02 05:07:00,33.0,32.8,30.72,North,360,15.9,19.6,99,0.03,CLR,,0.06,WeatherDisplay:10.37,2013-05-02 10:07:00,
2013-05-02 05:08:00,33.0,32.8,30.72,NNW,337,14.6,19.6,99,0.03,CLR,,0.06,WeatherDisplay:10.37,2013-05-02 10:08:00,
2013-05-02 05:10:00,33.0,32.8,30.72,NNW,337,17.9,21.9,99,0.04,RA,,0.07,WeatherDisplay:10.37,2013-05-02 10:10:00,
2013-05-02 05:12:00,34.0,33.5,30.72,NNW,337,16.5,20.7,98,0.04,RA,,0.07,WeatherDisplay:10.37,2013-05-02 10:12:00,
2013-05-02 05:13:00,34.0,33.2,30.72,NW,315,13.3,19.6,97,0.03,RA,,0.07,WeatherDisplay:10.37,2013-05-02 10:13:00,
2013-05-02 05:15:00,34.0,33.2,30.72,NNW,337,13.5,19.6,97,0.03,RA,,0.07,WeatherDisplay:10.37,2013-05-02 10:15:00,
2013-05-02 05:17:00,34.0,33.2,30.74,NW,315,14.6,19.6,97,0.03,RA,,0.07,WeatherDisplay:10.37,2013-05-02 10:17:00,
2013-05-02 05:18:00,34.0,33.2,30.74,NNW,337,12.7,19.6,97,0.03,RA,,0.07,WeatherDisplay:10.37,2013-05-02 10:18:00,
2013-05-02 05:20:00,34.0,33.2,30.74,NNW,337,12.5,16.1,97,0.03,CLR,,0.07,WeatherDisplay:10.37,2013-05-02 10:20:00,
2013-05-02 05:23:00,34.0,33.0,30.74,NNW,337,17.3,23.0,96,0.03,CLR,,0.07,WeatherDisplay:10.37,2013-05-02 10:23:00,
2013-05-02 05:24:00,34.0,33.0,30.74,NNW,337,14.5,18.4,96,0.03,CLR,,0.07,WeatherDisplay:10.37,2013-05-02 10:24:00,
2013-05-02 05:25:00,34.0,33.0,30.74,NNW,337,18.0,21.9,96,0.03,CLR,,0.07,WeatherDisplay:10.37,2013-05-02 10:25:00,
2013-05-02 05:28:00,34.0,33.0,30.73,NNW,337,15.5,21.0,96,0.04,RA,,0.08,WeatherDisplay:10.37,2013-05-02 10:28:00,
2013-05-02 05:29:00,34.0,33.0,30.73,NNW,337,16.9,23.0,96,0.04,RA,,0.08,WeatherDisplay:10.37,2013-05-02 10:29:00,
2013-05-02 05:30:00,34.0,33.0,30.73,NNW,337,15.0,19.6,96,0.04,RA,,0.08,WeatherDisplay:10.37,2013-05-02 10:30:00,
2013-05-02 05:33:00,34.0,33.0,30.73,NNW,337,14.2,19.6,96,0.03,RA,,0.08,WeatherDisplay:10.37,2013-05-02 10:33:00,
2013-05-02 05:34:00,34.0,33.0,30.73,NNW,337,16.2,19.6,96,0.03,RA,,0.08,WeatherDisplay:10.37,2013-05-02 10:34:00,
2013-05-02 05:35:00,34.0,33.0,30.73,NNW,337,16.2,19.6,96,0.03,RA,,0.08,WeatherDisplay:10.37,2013-05-02 10:35:00,
2013-05-02 05:38:00,34.0,33.0,30.73,NNW,337,13.1,20.7,96,0.03,CLR,,0.08,WeatherDisplay:10.37,2013-05-02 10:38:00,
2013-05-02 05:39:00,34.0,33.0,30.73,NNW,337,13.7,21.9,96,0.03,CLR,,0.08,WeatherDisplay:10.37,2013-05-02 10:39:00,
2013-05-02 05:40:00,34.0,33.0,30.73,NNW,337,14.8,19.6,96,0.03,CLR,,0.08,WeatherDisplay:10.37,2013-05-02 10:40:00,
2013-05-02 05:43:00,34.0,32.7,30.73,NNW,337,18.3,19.6,95,0.04,RA,,0.09,WeatherDisplay:10.37,2013-05-02 10:43:00,
2013-05-02 05:44:00,34.0,32.5,30.73,NNW,337,20.1,21.9,94,0.04,RA,,0.09,WeatherDisplay:10.37,2013-05-02 10:44:00,
2013-05-02 05:45:00,34.0,32.5,30.73,NNW,337,18.5,25.3,94,0.04,RA,,0.09,WeatherDisplay:10.37,2013-05-02 10:45:00,
2013-05-02 05:48:00,34.0,32.7,30.73,NNW,337,14.1,19.6,95,0.04,RA,,0.09,WeatherDisplay:10.37,2013-05-02 10:48:00,
2013-05-02 05:49:00,34.0,32.5,30.73,North,360,16.3,22.0,94,0.04,RA,,0.09,WeatherDisplay:10.37,2013-05-02 10:49:00,
2013-05-02 05:50:00,34.0,32.5,30.73,NNW,337,16.7,22.0,94,0.04,RA,,0.09,WeatherDisplay:10.37,2013-05-02 10:50:00,
2013-05-02 05:51:00,34.0,32.5,30.73,NNW,337,18.6,21.9,94,0.04,CLR,,0.09,WeatherDisplay:10.37,2013-05-02 10:51:00,
2013-05-02 05:53:00,34.0,32.5,30.73,NNW,337,15.5,20.0,94,0.03,CLR,,0.09,WeatherDisplay:10.37,2013-05-02 10:53:00,
2013-05-02 05:55:00,34.0,32.5,30.73,NNW,337,16.5,21.9,94,0.03,CLR,,0.09,WeatherDisplay:10.37,2013-05-02 10:55:00,
2013-05-02 05:56:00,34.0,32.5,30.73,North,360,14.6,21.0,94,0.03,CLR,,0.09,WeatherDisplay:10.37,2013-05-02 10:56:00,
2013-05-02 05:58:00,34.0,32.5,30.73,NNW,337,13.9,23.0,94,0.04,RA,,0.10,WeatherDisplay:10.37,2013-05-02 10:58:00,
2013-05-02 06:00:00,34.0,32.5,30.73,NNW,337,15.4,21.9,94,0.04,RA,,0.10,WeatherDisplay:10.37,2013-05-02 11:00:00,
2013-05-02 06:01:00,34.0,32.2,30.73,North,360,16.0,19.6,93,0.04,RA,,0.10,WeatherDisplay:10.37,2013-05-02 11:01:00,
2013-05-02 06:03:00,34.0,32.2,30.73,NNW,337,16.1,19.6,93,0.04,RA,,0.10,WeatherDisplay:10.37,2013-05-02 11:03:00,
2013-05-02 06:05:00,34.0,32.2,30.73,NNW,337,17.6,26.5,93,0.04,RA,,0.10,WeatherDisplay:10.37,2013-05-02 11:05:00,
2013-05-02 06:06:00,34.0,31.9,30.73,NNW,337,17.8,21.9,92,0.04,RA,,0.10,WeatherDisplay:10.37,2013-05-02 11:06:00,
2013-05-02 06:08:00,34.0,31.9,30.73,NNW,337,19.1,22.0,92,0.04,CLR,,0.10,WeatherDisplay:10.37,2013-05-02 11:08:00,
2013-05-02 06:10:00,34.0,31.9,30.73,NNW,337,20.1,26.5,92,0.04,RA,,0.11,WeatherDisplay:10.37,2013-05-02 11:10:00,
2013-05-02 06:11:00,34.0,31.9,30.73,NNE,22,19.1,23.0,92,0.04,RA,,0.11,WeatherDisplay:10.37,2013-05-02 11:11:00,
2013-05-02 06:12:00,34.0,31.9,30.73,NNW,337,19.3,26.5,92,0.04,RA,,0.11,WeatherDisplay:10.37,2013-05-02 11:12:00,
2013-05-02 06:14:00,34.0,31.9,30.73,North,360,14.6,19.6,92,0.04,RA,,0.11,WeatherDisplay:10.37,2013-05-02 11:14:00,
2013-05-02 06:15:00,34.0,32.2,30.73,NNW,337,14.9,18.4,93,0.04,RA,,0.11,WeatherDisplay:10.37,2013-05-02 11:15:00,
2013-05-02 06:16:00,34.0,31.9,30.75,NNW,337,15.3,19.6,92,0.04,RA,,0.11,WeatherDisplay:10.37,2013-05-02 11:16:00,
2013-05-02 06:17:00,34.0,31.9,30.75,NNW,337,13.7,19.6,92,0.04,RA,,0.11,WeatherDisplay:10.37,2013-05-02 11:17:00,
2013-05-02 06:19:00,34.0,32.2,30.75,NNE,22,13.6,17.3,93,0.04,RA,,0.11,WeatherDisplay:10.37,2013-05-02 11:19:00,
2013-05-02 06:21:00,34.0,31.9,30.75,NNW,337,17.4,22.0,92,0.04,CLR,,0.11,WeatherDisplay:10.37,2013-05-02 11:21:00,
2013-05-02 06:22:00,34.0,31.9,30.75,NNW,337,18.1,23.0,92,0.04,CLR,,0.11,WeatherDisplay:10.37,2013-05-02 11:22:00,
2013-05-02 06:24:00,34.0,31.9,30.75,NNW,337,7.5,18.4,92,0.04,CLR,,0.11,WeatherDisplay:10.37,2013-05-02 11:24:00,
2013-05-02 06:26:00,34.0,31.9,30.74,NNW,337,16.7,23.0,92,0.04,CLR,,0.12,WeatherDisplay:10.37,2013-05-02 11:26:00,
2013-05-02 06:27:00,34.0,31.9,30.74,NNW,337,17.4,21.9,92,0.04,RA,,0.12,WeatherDisplay:10.37,2013-05-02 11:27:00,
2013-05-02 06:29:00,34.0,31.9,30.74,North,360,15.8,20.7,92,0.04,RA,,0.12,WeatherDisplay:10.37,2013-05-02 11:29:00,
2013-05-02 06:31:00,34.0,31.9,30.74,NNE,22,9.7,21.9,92,0.04,RA,,0.12,WeatherDisplay:10.37,2013-05-02 11:31:00,
2013-05-02 06:32:00,34.0,31.9,30.74,NNW,337,8.0,23.0,92,0.04,RA,,0.12,WeatherDisplay:10.37,2013-05-02 11:32:00,
2013-05-02 06:34:00,34.0,31.9,30.74,NNW,337,17.7,24.0,92,0.04,RA,,0.12,WeatherDisplay:10.37,2013-05-02 11:34:00,
2013-05-02 06:36:00,34.0,31.6,30.74,NNW,337,17.0,26.5,91,0.04,RA,,0.12,WeatherDisplay:10.37,2013-05-02 11:36:00,
2013-05-02 06:37:00,34.0,31.9,30.74,NNW,337,17.7,24.2,92,0.04,CLR,,0.12,WeatherDisplay:10.37,2013-05-02 11:37:00,
2013-05-02 06:39:00,34.0,31.9,30.74,NNW,337,18.4,18.4,92,0.04,CLR,,0.12,WeatherDisplay:10.37,2013-05-02 11:39:00,
2013-05-02 06:41:00,34.0,31.9,30.74,NNW,337,13.3,21.9,92,0.03,CLR,,0.12,WeatherDisplay:10.37,2013-05-02 11:41:00,
2013-05-02 06:42:00,34.0,31.9,30.74,NNW,337,13.2,17.0,92,0.03,CLR,,0.12,WeatherDisplay:10.37,2013-05-02 11:42:00,
2013-05-02 06:44:00,34.0,31.9,30.74,NNW,337,14.6,23.0,92,0.04,RA,,0.13,WeatherDisplay:10.37,2013-05-02 11:44:00,
2013-05-02 06:46:00,34.0,31.9,30.74,NNW,337,18.0,20.7,92,0.04,RA,,0.13,WeatherDisplay:10.37,2013-05-02 11:46:00,
2013-05-02 06:47:00,34.0,31.9,30.74,North,360,17.2,20.7,92,0.04,RA,,0.13,WeatherDisplay:10.37,2013-05-02 11:47:00,
2013-05-02 06:48:00,34.0,31.9,30.74,NNW,337,17.0,21.9,92,0.04,RA,,0.13,WeatherDisplay:10.37,2013-05-02 11:48:00,
2013-05-02 06:50:00,34.0,31.9,30.74,NNW,337,14.3,21.9,92,0.04,RA,,0.13,WeatherDisplay:10.37,2013-05-02 11:50:00,
2013-05-02 06:52:00,34.0,31.9,30.74,NNW,337,14.2,19.6,92,0.04,RA,,0.13,WeatherDisplay:10.37,2013-05-02 11:52:00,
2013-05-02 06:53:00,34.0,31.9,30.74,NNE,22,12.2,19.6,92,0.04,CLR,,0.13,WeatherDisplay:10.37,2013-05-02 11:53:00,
2013-05-02 06:55:00,34.0,31.9,30.74,NNW,337,12.1,19.6,92,0.04,CLR,,0.13,WeatherDisplay:10.37,2013-05-02 11:55:00,
2013-05-02 06:57:00,34.0,31.9,30.75,North,360,13.9,22.0,92,0.03,CLR,,0.13,WeatherDisplay:10.37,2013-05-02 11:57:00,
2013-05-02 06:58:00,34.0,31.9,30.75,NNW,337,15.2,21.9,92,0.03,CLR,,0.13,WeatherDisplay:10.37,2013-05-02 11:58:00,
2013-05-02 07:00:00,34.0,31.9,30.75,NNW,337,12.1,19.6,92,0.03,CLR,,0.13,WeatherDisplay:10.37,2013-05-02 12:00:00,
2013-05-02 07:02:00,34.0,31.9,30.75,North,360,14.7,20.7,92,0.03,CLR,,0.13,WeatherDisplay:10.37,2013-05-02 12:02:00,
2013-05-02 07:03:00,34.0,31.9,30.75,NNW,337,15.3,21.9,92,0.03,CLR,,0.13,WeatherDisplay:10.37,2013-05-02 12:03:00,
2013-05-02 07:04:00,34.0,31.9,30.75,North,360,16.1,21.9,92,0.04,RA,,0.14,WeatherDisplay:10.37,2013-05-02 12:04:00,
2013-05-02 07:06:00,34.0,31.9,30.74,NNW,337,16.4,21.9,92,0.04,RA,,0.14,WeatherDisplay:10.37,2013-05-02 12:06:00,
2013-05-02 07:07:00,34.0,31.9,30.74,NNW,337,16.8,23.0,92,0.04,RA,,0.14,WeatherDisplay:10.37,2013-05-02 12:07:00,
2013-05-02 07:08:00,34.0,31.9,30.74,NNW,337,15.9,23.0,92,0.04,RA,,0.14,WeatherDisplay:10.37,2013-05-02 12:08:00,
2013-05-02 07:09:00,34.0,31.9,30.74,NNW,337,16.7,23.0,92,0.04,RA,,0.14,WeatherDisplay:10.37,2013-05-02 12:09:00,
2013-05-02 07:11:00,34.0,31.9,30.74,NNW,337,12.6,18.4,92,0.03,RA,,0.14,WeatherDisplay:10.37,2013-05-02 12:11:00,
2013-05-02 07:13:00,34.0,31.9,30.74,NNW,337,12.0,16.0,92,0.03,RA,,0.14,WeatherDisplay:10.37,2013-05-02 12:13:00,
2013-05-02 07:14:00,34.0,31.9,30.74,NNW,337,17.5,19.6,92,0.03,CLR,,0.14,WeatherDisplay:10.37,2013-05-02 12:14:00,
2013-05-02 07:16:00,34.0,31.6,30.75,NNW,337,16.4,19.6,91,0.03,CLR,,0.14,WeatherDisplay:10.37,2013-05-02 12:16:00,
2013-05-02 07:18:00,34.0,31.9,30.75,NNW,337,13.3,19.6,92,0.03,CLR,,0.14,WeatherDisplay:10.37,2013-05-02 12:18:00,
2013-05-02 07:19:00,34.0,31.9,30.75,NNW,337,14.5,19.6,92,0.03,CLR,,0.14,WeatherDisplay:10.37,2013-05-02 12:19:00,
2013-05-02 07:21:00,34.0,31.9,30.75,NNW,337,14.8,19.6,92,0.03,CLR,,0.14,WeatherDisplay:10.37,2013-05-02 12:21:00,
2013-05-02 07:23:00,34.0,31.9,30.75,NNW,337,12.7,16.1,92,0.03,CLR,,0.14,WeatherDisplay:10.37,2013-05-02 12:23:00,
2013-05-02 07:24:00,34.0,31.9,30.75,NNW,337,10.8,16.1,92,0.03,CLR,,0.14,WeatherDisplay:10.37,2013-05-02 12:24:00,
2013-05-02 07:25:00,34.0,31.9,30.75,NNW,337,11.2,14.0,92,0.03,CLR,,0.14,WeatherDisplay:10.37,2013-05-02 12:25:00,
2013-05-02 07:26:00,34.0,31.6,30.75,NNW,337,13.1,15.0,91,0.02,CLR,,0.14,WeatherDisplay:10.37,2013-05-02 12:26:00,
2013-05-02 07:28:00,34.0,31.9,30.75,NNW,337,14.3,18.4,92,0.03,RA,,0.15,WeatherDisplay:10.37,2013-05-02 12:28:00,
2013-05-02 07:29:00,34.0,31.9,30.75,NNW,337,12.9,17.3,92,0.03,RA,,0.15,WeatherDisplay:10.37,2013-05-02 12:29:00,
2013-05-02 07:30:00,34.0,31.9,30.75,NNW,337,15.3,19.6,92,0.03,RA,,0.15,WeatherDisplay:10.37,2013-05-02 12:30:00,
2013-05-02 07:32:00,34.0,31.9,30.75,NNW,337,12.5,15.0,92,0.03,RA,,0.15,WeatherDisplay:10.37,2013-05-02 12:32:00,
2013-05-02 07:33:00,34.0,31.6,30.75,NNW,337,15.0,19.6,91,0.03,RA,,0.15,WeatherDisplay:10.37,2013-05-02 12:33:00,
2013-05-02 07:34:00,34.0,31.6,30.75,NNE,22,16.8,19.6,91,0.03,RA,,0.15,WeatherDisplay:10.37,2013-05-02 12:34:00,
2013-05-02 07:35:00,34.0,31.6,30.75,NNW,337,16.6,20.7,91,0.03,RA,,0.15,WeatherDisplay:10.37,2013-05-02 12:35:00,
2013-05-02 07:37:00,34.0,31.4,30.75,NNW,337,17.8,19.6,90,0.03,RA,,0.15,WeatherDisplay:10.37,2013-05-02 12:37:00,
2013-05-02 07:38:00,34.0,31.4,30.75,NNW,337,13.6,21.9,90,0.03,CLR,,0.15,WeatherDisplay:10.37,2013-05-02 12:38:00,
2013-05-02 07:39:00,34.0,31.1,30.75,North,360,14.7,19.6,89,0.03,CLR,,0.15,WeatherDisplay:10.37,2013-05-02 12:39:00,
2013-05-02 07:40:00,34.0,31.1,30.75,NNW,337,14.3,19.6,89,0.03,CLR,,0.15,WeatherDisplay:10.37,2013-05-02 12:40:00,
2013-05-02 07:42:00,34.0,30.8,30.75,NNW,337,16.2,23.0,88,0.03,CLR,,0.15,WeatherDisplay:10.37,2013-05-02 12:42:00,
2013-05-02 07:43:00,34.0,30.5,30.75,NNW,337,17.5,22.0,87,0.02,CLR,,0.15,WeatherDisplay:10.37,2013-05-02 12:43:00,
2013-05-02 07:44:00,34.0,30.5,30.75,NNW,337,17.9,22.0,87,0.02,CLR,,0.15,WeatherDisplay:10.37,2013-05-02 12:44:00,
2013-05-02 07:45:00,34.0,30.5,30.75,NNW,337,17.7,21.9,87,0.02,CLR,,0.15,WeatherDisplay:10.37,2013-05-02 12:45:00,
2013-05-02 07:46:00,34.0,30.5,30.76,NNW,337,15.6,21.9,87,0.02,CLR,,0.15,WeatherDisplay:10.37,2013-05-02 12:46:00,
2013-05-02 07:47:00,34.0,30.5,30.76,NNW,337,13.5,19.6,87,0.02,CLR,,0.15,WeatherDisplay:10.37,2013-05-02 12:47:00,
2013-05-02 07:49:00,34.0,30.5,30.76,NNW,337,14.8,19.6,87,0.02,CLR,,0.15,WeatherDisplay:10.37,2013-05-02 12:49:00,
2013-05-02 07:50:00,34.0,30.5,30.76,NW,315,13.2,17.3,87,0.03,RA,,0.16,WeatherDisplay:10.37,2013-05-02 12:50:00,
2013-05-02 07:51:00,34.0,30.5,30.76,NNW,337,13.1,19.6,87,0.03,RA,,0.16,WeatherDisplay:10.37,2013-05-02 12:51:00,
2013-05-02 07:52:00,34.0,30.8,30.76,NNW,337,12.3,15.0,88,0.03,RA,,0.16,WeatherDisplay:10.37,2013-05-02 12:52:00,
2013-05-02 07:54:00,34.0,30.5,30.76,NNW,337,13.5,19.6,87,0.03,RA,,0.16,WeatherDisplay:10.37,2013-05-02 12:54:00,
2013-05-02 07:55:00,34.0,30.5,30.76,NNW,337,14.1,20.0,87,0.03,RA,,0.16,WeatherDisplay:10.37,2013-05-02 12:55:00,
2013-05-02 07:56:00,34.0,30.3,30.76,NNW,337,17.8,23.0,86,0.03,RA,,0.16,WeatherDisplay:10.37,2013-05-02 12:56:00,
2013-05-02 07:58:00,34.0,30.3,30.76,NNW,337,12.9,23.0,86,0.03,RA,,0.16,WeatherDisplay:10.37,2013-05-02 12:58:00,
2013-05-02 07:59:00,34.0,30.3,30.76,NNW,337,15.7,16.1,86,0.03,RA,,0.16,WeatherDisplay:10.37,2013-05-02 12:59:00,
2013-05-02 08:00:00,34.0,30.3,30.76,NNW,337,16.4,20.7,86,0.03,CLR,,0.16,WeatherDisplay:10.37,2013-05-02 13:00:00,
2013-05-02 08:01:00,34.0,30.3,30.76,NNW,337,17.2,21.0,86,0.03,CLR,,0.16,WeatherDisplay:10.37,2013-05-02 13:01:00,
2013-05-02 08:03:00,34.0,30.3,30.76,NNW,337,12.6,19.6,86,0.03,CLR,,0.16,WeatherDisplay:10.37,2013-05-02 13:03:00,
2013-05-02 08:05:00,34.0,30.3,30.76,NNW,337,13.0,20.0,86,0.02,CLR,,0.16,WeatherDisplay:10.37,2013-05-02 13:05:00,
2013-05-02 08:06:00,34.0,30.3,30.76,NNW,337,15.9,20.7,86,0.02,CLR,,0.16,WeatherDisplay:10.37,2013-05-02 13:06:00,
2013-05-02 08:08:00,34.0,30.0,30.76,NNW,337,14.2,21.9,85,0.02,CLR,,0.17,WeatherDisplay:10.37,2013-05-02 13:08:00,
2013-05-02 08:10:00,34.0,30.0,30.76,NNE,22,15.2,19.6,85,0.03,RA,,0.17,WeatherDisplay:10.37,2013-05-02 13:10:00,
2013-05-02 08:11:00,34.0,30.0,30.76,North,360,14.5,22.0,85,0.03,RA,,0.17,WeatherDisplay:10.37,2013-05-02 13:11:00,
2013-05-02 08:13:00,35.0,30.7,30.76,NNW,337,17.2,21.9,84,0.03,RA,,0.17,WeatherDisplay:10.37,2013-05-02 13:13:00,
2013-05-02 08:16:00,35.0,30.9,30.76,NNW,337,11.0,16.1,85,0.03,RA,,0.17,WeatherDisplay:10.37,2013-05-02 13:16:00,
2013-05-02 08:18:00,35.0,30.7,30.76,NNW,337,11.6,18.4,84,0.03,RA,,0.17,WeatherDisplay:10.37,2013-05-02 13:18:00,
2013-05-02 08:21:00,35.0,30.1,30.76,NNW,337,13.7,18.4,82,0.03,CLR,,0.17,WeatherDisplay:10.37,2013-05-02 13:21:00,
2013-05-02 08:22:00,35.0,30.1,30.76,NNW,337,13.8,20.0,82,0.03,CLR,,0.17,WeatherDisplay:10.37,2013-05-02 13:22:00,
2013-05-02 08:23:00,35.0,30.1,30.76,NNW,337,12.6,19.6,82,0.03,CLR,,0.17,WeatherDisplay:10.37,2013-05-02 13:23:00,
2013-05-02 08:26:00,35.0,29.8,30.77,NNW,337,13.5,19.0,81,0.03,CLR,,0.18,WeatherDisplay:10.37,2013-05-02 13:26:00,
2013-05-02 08:27:00,35.0,29.8,30.77,NNW,337,13.5,19.6,81,0.04,RA,,0.18,WeatherDisplay:10.37,2013-05-02 13:27:00,
2013-05-02 08:28:00,35.0,29.8,30.77,NNW,337,15.8,23.0,81,0.03,RA,,0.18,WeatherDisplay:10.37,2013-05-02 13:28:00,
2013-05-02 08:31:00,35.0,29.5,30.77,NNW,337,15.0,19.6,80,0.03,RA,,0.18,WeatherDisplay:10.37,2013-05-02 13:31:00,
2013-05-02 08:32:00,35.0,29.5,30.77,NNW,337,14.9,19.6,80,0.03,RA,,0.18,WeatherDisplay:10.37,2013-05-02 13:32:00,
2013-05-02 08:34:00,35.0,29.5,30.77,NNE,22,11.0,13.8,80,0.03,RA,,0.18,WeatherDisplay:10.37,2013-05-02 13:34:00,
2013-05-02 08:36:00,35.0,28.8,30.77,NNW,337,16.9,23.0,78,0.03,RA,,0.18,WeatherDisplay:10.37,2013-05-02 13:36:00,
2013-05-02 08:37:00,35.0,29.1,30.77,NNW,337,15.0,19.6,79,0.03,CLR,,0.18,WeatherDisplay:10.37,2013-05-02 13:37:00,
2013-05-02 08:39:00,35.0,29.1,30.77,NNW,337,13.1,18.4,79,0.03,CLR,,0.18,WeatherDisplay:10.37,2013-05-02 13:39:00,
2013-05-02 08:42:00,35.0,28.5,30.77,NNW,337,15.5,21.0,77,0.03,CLR,,0.19,WeatherDisplay:10.37,2013-05-02 13:42:00,
2013-05-02 08:43:00,35.0,28.8,30.77,NNW,337,15.8,24.2,78,0.04,RA,,0.19,WeatherDisplay:10.37,2013-05-02 13:43:00,
2013-05-02 08:44:00,35.0,28.5,30.77,NNW,337,14.7,19.6,77,0.04,RA,,0.19,WeatherDisplay:10.37,2013-05-02 13:44:00,
2013-05-02 08:47:00,35.0,28.5,30.77,NNW,337,15.9,19.6,77,0.04,RA,,0.19,WeatherDisplay:10.37,2013-05-02 13:47:00,
2013-05-02 08:48:00,35.0,28.5,30.77,NNW,337,16.5,19.6,77,0.04,RA,,0.19,WeatherDisplay:10.37,2013-05-02 13:48:00,
2013-05-02 08:49:00,35.0,28.5,30.77,NNW,337,12.2,17.3,77,0.04,RA,,0.19,WeatherDisplay:10.37,2013-05-02 13:49:00,
2013-05-02 08:52:00,36.0,29.5,30.77,North,360,12.7,18.4,77,0.03,RA,,0.19,WeatherDisplay:10.37,2013-05-02 13:52:00,
2013-05-02 08:53:00,36.0,29.5,30.77,NNW,337,10.0,19.6,77,0.03,CLR,,0.19,WeatherDisplay:10.37,2013-05-02 13:53:00,
2013-05-02 08:54:00,36.0,29.2,30.77,NNW,337,11.7,18.0,76,0.03,CLR,,0.19,WeatherDisplay:10.37,2013-05-02 13:54:00,
2013-05-02 08:57:00,36.0,29.2,30.76,NNE,22,14.2,20.7,76,0.03,CLR,,0.20,WeatherDisplay:10.37,2013-05-02 13:57:00,
2013-05-02 08:58:00,36.0,29.2,30.76,NNW,337,14.8,19.6,76,0.04,RA,,0.20,WeatherDisplay:10.37,2013-05-02 13:58:00,
2013-05-02 08:59:00,36.0,29.2,30.76,NNW,337,16.2,23.0,76,0.04,RA,,0.20,WeatherDisplay:10.37,2013-05-02 13:59:00,
2013-05-02 09:02:00,36.0,28.8,30.76,NNW,337,15.2,19.6,75,0.04,RA,,0.20,WeatherDisplay:10.37,2013-05-02 14:02:00,
2013-05-02 09:03:00,36.0,29.2,30.76,NNW,337,14.7,19.6,76,0.04,RA,,0.20,WeatherDisplay:10.37,2013-05-02 14:03:00,
2013-05-02 09:04:00,36.0,28.5,30.76,NNW,337,16.7,19.0,74,0.04,RA,,0.20,WeatherDisplay:10.37,2013-05-02 14:04:00,
2013-05-02 09:07:00,36.0,28.5,30.75,North,360,20.9,26.5,74,0.04,RA,,0.20,WeatherDisplay:10.37,2013-05-02 14:07:00,
2013-05-02 09:08:00,36.0,28.8,30.75,NNW,337,20.1,26.5,75,0.04,CLR,,0.20,WeatherDisplay:10.37,2013-05-02 14:08:00,
2013-05-02 09:09:00,36.0,28.8,30.75,NNE,22,17.6,23.0,75,0.03,CLR,,0.20,WeatherDisplay:10.37,2013-05-02 14:09:00,
2013-05-02 09:13:00,36.0,29.2,30.75,NNW,337,13.8,20.7,76,0.03,CLR,,0.20,WeatherDisplay:10.37,2013-05-02 14:13:00,
2013-05-02 09:14:00,36.0,29.2,30.75,NNW,337,18.0,23.0,76,0.04,RA,,0.21,WeatherDisplay:10.37,2013-05-02 14:14:00,
2013-05-02 09:15:00,36.0,29.2,30.75,North,360,16.2,24.2,76,0.04,RA,,0.21,WeatherDisplay:10.37,2013-05-02 14:15:00,
2013-05-02 09:18:00,36.0,29.2,30.77,North,360,18.5,25.3,76,0.04,RA,,0.21,WeatherDisplay:10.37,2013-05-02 14:18:00,
2013-05-02 09:19:00,36.0,29.2,30.77,North,360,14.7,19.6,76,0.04,RA,,0.21,WeatherDisplay:10.37,2013-05-02 14:19:00,
2013-05-02 09:20:00,36.0,29.2,30.77,NNW,337,16.8,24.0,76,0.04,RA,,0.21,WeatherDisplay:10.37,2013-05-02 14:20:00,
2013-05-02 09:23:00,36.0,29.2,30.77,North,360,17.2,25.3,76,0.04,RA,,0.21,WeatherDisplay:10.37,2013-05-02 14:23:00,
2013-05-02 09:24:00,36.0,28.8,30.77,NNW,337,20.1,25.3,75,0.04,CLR,,0.21,WeatherDisplay:10.37,2013-05-02 14:24:00,
2013-05-02 09:25:00,36.0,28.8,30.77,WSW,247,11.1,24.2,75,0.04,CLR,,0.21,WeatherDisplay:10.37,2013-05-02 14:25:00,
2013-05-02 09:26:00,36.0,28.8,30.77,NNW,337,18.4,26.5,75,0.04,CLR,,0.21,WeatherDisplay:10.37,2013-05-02 14:26:00,
2013-05-02 09:28:00,36.0,28.5,30.77,NNW,337,19.0,26.0,74,0.04,RA,,0.22,WeatherDisplay:10.37,2013-05-02 14:28:00,
2013-05-02 09:29:00,36.0,28.8,30.77,NNW,337,16.2,26.5,75,0.04,RA,,0.22,WeatherDisplay:10.37,2013-05-02 14:29:00,
2013-05-02 09:30:00,36.0,29.2,30.77,NNW,337,17.0,23.0,76,0.04,RA,,0.22,WeatherDisplay:10.37,2013-05-02 14:30:00,
2013-05-02 09:31:00,36.0,29.2,30.77,NNW,337,18.9,26.5,76,0.04,RA,,0.22,WeatherDisplay:10.37,2013-05-02 14:31:00,
2013-05-02 09:33:00,36.0,28.5,30.77,NNW,337,15.9,20.7,74,0.04,RA,,0.22,WeatherDisplay:10.37,2013-05-02 14:33:00,
2013-05-02 09:34:00,36.0,28.5,30.77,NNW,337,15.8,19.6,74,0.04,RA,,0.22,WeatherDisplay:10.37,2013-05-02 14:34:00,
2013-05-02 09:35:00,36.0,28.5,30.77,NNW,337,16.2,19.6,74,0.04,RA,,0.22,WeatherDisplay:10.37,2013-05-02 14:35:00,
2013-05-02 09:36:00,37.0,28.8,30.76,NNW,337,18.8,24.2,72,0.04,RA,,0.22,WeatherDisplay:10.37,2013-05-02 14:36:00,
2013-05-02 09:38:00,36.0,28.2,30.76,NNW,337,16.2,22.0,73,0.04,CLR,,0.22,WeatherDisplay:10.37,2013-05-02 14:38:00,
2013-05-02 09:40:00,36.0,28.5,30.76,NNW,337,17.3,26.5,74,0.04,CLR,,0.22,WeatherDisplay:10.37,2013-05-02 14:40:00,
2013-05-02 09:41:00,36.0,28.2,30.76,North,360,18.4,24.0,73,0.04,CLR,,0.23,WeatherDisplay:10.37,2013-05-02 14:41:00,
2013-05-02 09:43:00,36.0,28.2,30.76,WSW,247,12.5,20.7,73,0.04,RA,,0.23,WeatherDisplay:10.37,2013-05-02 14:43:00,
2013-05-02 09:44:00,36.0,28.2,30.76,NNW,337,11.4,23.0,73,0.04,RA,,0.23,WeatherDisplay:10.37,2013-05-02 14:44:00,
2013-05-02 09:45:00,36.0,28.5,30.76,NNW,337,16.6,20.7,74,0.04,RA,,0.23,WeatherDisplay:10.37,2013-05-02 14:45:00,
2013-05-02 09:46:00,36.0,27.8,30.76,NNE,22,19.0,24.0,72,0.04,RA,,0.23,WeatherDisplay:10.37,2013-05-02 14:46:00,
2013-05-02 09:48:00,36.0,28.2,30.76,NNW,337,20.0,26.5,73,0.04,RA,,0.23,WeatherDisplay:10.37,2013-05-02 14:48:00,
2013-05-02 09:49:00,36.0,28.5,30.76,NNW,337,25.1,27.6,74,0.04,RA,,0.23,WeatherDisplay:10.37,2013-05-02 14:49:00,
2013-05-02 09:50:00,36.0,28.5,30.76,NNW,337,17.4,32.2,74,0.04,RA,,0.23,WeatherDisplay:10.37,2013-05-02 14:50:00,
2013-05-02 09:51:00,36.0,28.5,30.76,NNW,337,17.7,23.0,74,0.04,RA,,0.23,WeatherDisplay:10.37,2013-05-02 14:51:00,
2013-05-02 09:53:00,36.0,28.5,30.76,NNW,337,9.6,26.5,74,0.05,RA,,0.24,WeatherDisplay:10.37,2013-05-02 14:53:00,
2013-05-02 09:54:00,36.0,28.2,30.76,NNW,337,21.0,26.5,73,0.05,RA,,0.24,WeatherDisplay:10.37,2013-05-02 14:54:00,
2013-05-02 09:55:00,36.0,28.8,30.76,NNW,337,15.9,26.5,75,0.05,RA,,0.24,WeatherDisplay:10.37,2013-05-02 14:55:00,
2013-05-02 09:56:00,36.0,28.2,30.76,NNW,337,20.8,26.5,73,0.05,RA,,0.24,WeatherDisplay:10.37,2013-05-02 14:56:00,
2013-05-02 09:59:00,36.0,28.5,30.76,NNW,337,18.8,26.5,74,0.04,RA,,0.24,WeatherDisplay:10.37,2013-05-02 14:59:00,
2013-05-02 10:01:00,36.0,28.5,30.76,NNW,337,21.0,26.5,74,0.05,RA,,0.25,WeatherDisplay:10.37,2013-05-02 15:01:00,
2013-05-02 10:04:00,37.0,29.1,30.76,NNW,337,18.5,27.0,73,0.07,RA,,0.27,WeatherDisplay:10.37,2013-05-02 15:04:00,
2013-05-02 10:05:00,37.0,29.1,30.76,NNW,337,20.0,27.6,73,0.07,RA,,0.27,WeatherDisplay:10.37,2013-05-02 15:05:00,
2013-05-02 10:06:00,37.0,28.8,30.76,NNW,337,15.2,23.0,72,0.07,RA,,0.27,WeatherDisplay:10.37,2013-05-02 15:06:00,
2013-05-02 10:07:00,37.0,28.8,30.76,NNW,337,12.4,20.7,72,0.07,RA,,0.27,WeatherDisplay:10.37,2013-05-02 15:07:00,
2013-05-02 10:09:00,37.0,28.5,30.76,NNW,337,19.0,27.0,71,0.07,RA,,0.28,WeatherDisplay:10.37,2013-05-02 15:09:00,
2013-05-02 10:10:00,37.0,28.5,30.76,NNW,337,20.4,26.5,71,0.08,RA,,0.28,WeatherDisplay:10.37,2013-05-02 15:10:00,
2013-05-02 10:11:00,37.0,28.5,30.76,NNW,337,16.5,27.0,71,0.08,RA,,0.28,WeatherDisplay:10.37,2013-05-02 15:11:00,
2013-05-02 10:12:00,37.0,28.8,30.76,NNW,337,22.4,26.5,72,0.08,RA,,0.28,WeatherDisplay:10.37,2013-05-02 15:12:00,
2013-05-02 10:15:00,37.0,29.1,30.76,NNW,337,16.0,23.0,73,0.07,RA,,0.28,WeatherDisplay:10.37,2013-05-02 15:15:00,
2013-05-02 10:16:00,37.0,28.5,30.76,NNW,337,17.3,24.2,71,0.07,RA,,0.28,WeatherDisplay:10.37,2013-05-02 15:16:00,
2013-05-02 10:17:00,37.0,28.5,30.76,NNW,337,19.9,26.0,71,0.07,RA,,0.28,WeatherDisplay:10.37,2013-05-02 15:17:00,
2013-05-02 10:20:00,37.0,28.5,30.76,NNW,337,19.6,26.5,71,0.08,RA,,0.29,WeatherDisplay:10.37,2013-05-02 15:20:00,
2013-05-02 10:21:00,37.0,28.5,30.76,North,360,21.6,28.8,71,0.10,RA,,0.31,WeatherDisplay:10.37,2013-05-02 15:21:00,
2013-05-02 10:22:00,37.0,28.8,30.76,North,360,18.0,24.2,72,0.10,RA,,0.31,WeatherDisplay:10.37,2013-05-02 15:22:00,
2013-05-02 10:25:00,38.0,29.1,30.76,NNW,337,18.1,26.5,70,0.10,RA,,0.31,WeatherDisplay:10.37,2013-05-02 15:25:00,
2013-05-02 10:26:00,38.0,28.4,30.75,NNW,337,19.4,27.6,68,0.10,RA,,0.31,WeatherDisplay:10.37,2013-05-02 15:26:00,
2013-05-02 10:27:00,38.0,28.4,30.75,NNW,337,17.7,23.0,68,0.09,RA,,0.31,WeatherDisplay:10.37,2013-05-02 15:27:00,
2013-05-02 10:30:00,38.0,28.4,30.75,NNW,337,18.7,28.8,68,0.10,RA,,0.32,WeatherDisplay:10.37,2013-05-02 15:30:00,
2013-05-02 10:31:00,38.0,28.4,30.75,NNW,337,21.7,28.8,68,0.10,RA,,0.32,WeatherDisplay:10.37,2013-05-02 15:31:00,
2013-05-02 10:32:00,38.0,28.7,30.75,NNW,337,20.2,31.1,69,0.10,RA,,0.32,WeatherDisplay:10.37,2013-05-02 15:32:00,
2013-05-02 10:33:00,38.0,28.4,30.75,North,360,20.3,29.0,68,0.10,RA,,0.32,WeatherDisplay:10.37,2013-05-02 15:33:00,
2013-05-02 10:35:00,38.0,29.1,30.75,NNW,337,18.2,26.5,70,0.12,RA,,0.34,WeatherDisplay:10.37,2013-05-02 15:35:00,
2013-05-02 10:36:00,38.0,28.7,30.75,NNW,337,17.8,21.9,69,0.13,RA,,0.35,WeatherDisplay:10.37,2013-05-02 15:36:00,
2013-05-02 10:37:00,38.0,28.7,30.75,NNW,337,17.4,21.9,69,0.13,RA,,0.35,WeatherDisplay:10.37,2013-05-02 15:37:00,
2013-05-02 10:38:00,38.0,29.1,30.75,NE,45,13.6,19.6,70,0.13,RA,,0.35,WeatherDisplay:10.37,2013-05-02 15:38:00,
2013-05-02 10:40:00,38.0,29.1,30.75,NNW,337,8.3,29.9,70,0.14,RA,,0.36,WeatherDisplay:10.37,2013-05-02 15:40:00,
2013-05-02 10:42:00,38.0,28.4,30.75,North,360,11.4,26.5,68,0.14,RA,,0.37,WeatherDisplay:10.37,2013-05-02 15:42:00,
2013-05-02 10:43:00,38.0,28.4,30.75,NNE,22,22.6,34.5,68,0.14,RA,,0.37,WeatherDisplay:10.37,2013-05-02 15:43:00,
2013-05-02 10:45:00,38.0,28.4,30.75,North,360,16.5,24.2,68,0.14,RA,,0.38,WeatherDisplay:10.37,2013-05-02 15:45:00,
2013-05-02 10:47:00,38.0,28.0,30.76,NNW,337,15.0,24.2,67,0.15,RA,,0.38,WeatherDisplay:10.37,2013-05-02 15:47:00,
2013-05-02 10:51:00,39.0,29.0,30.76,NE,45,15.3,20.7,67,0.17,RA,,0.40,WeatherDisplay:10.37,2013-05-02 15:51:00,
2013-05-02 10:54:00,38.0,28.4,30.76,NNW,337,15.6,21.9,68,0.17,RA,,0.41,WeatherDisplay:10.37,2013-05-02 15:54:00,
2013-05-02 11:01:00,39.0,28.2,30.75,North,360,15.4,19.6,65,0.19,RA,,0.44,WeatherDisplay:10.37,2013-05-02 16:01:00,
2013-05-02 11:06:00,39.0,28.2,30.74,NNW,337,19.7,21.9,65,0.19,RA,,0.46,WeatherDisplay:10.37,2013-05-02 16:06:00,
2013-05-02 11:07:00,39.0,28.2,30.74,NNW,337,18.2,25.3,65,0.20,RA,,0.47,WeatherDisplay:10.37,2013-05-02 16:07:00,
2013-05-02 11:11:00,40.0,28.8,30.74,NNW,337,15.3,22.0,64,0.20,RA,,0.49,WeatherDisplay:10.37,2013-05-02 16:11:00,
2013-05-02 11:12:00,40.0,28.8,30.74,North,360,15.6,21.9,64,0.21,RA,,0.49,WeatherDisplay:10.37,2013-05-02 16:12:00,
2013-05-02 11:16:00,40.0,28.4,30.75,North,360,17.7,26.5,63,0.23,RA,,0.51,WeatherDisplay:10.37,2013-05-02 16:16:00,
2013-05-02 11:17:00,39.0,27.8,30.75,NNE,22,18.3,23.0,64,0.23,RA,,0.52,WeatherDisplay:10.37,2013-05-02 16:17:00,
2013-05-02 11:21:00,39.0,28.2,30.75,North,360,19.7,25.3,65,0.22,RA,,0.53,WeatherDisplay:10.37,2013-05-02 16:21:00,
2013-05-02 11:22:00,39.0,28.2,30.75,NNW,337,19.3,24.2,65,0.22,RA,,0.53,WeatherDisplay:10.37,2013-05-02 16:22:00,
2013-05-02 11:23:00,39.0,28.6,30.75,NNE,22,13.5,20.7,66,0.23,RA,,0.54,WeatherDisplay:10.37,2013-05-02 16:23:00,
2013-05-02 11:26:00,40.0,29.2,30.75,North,360,14.6,20.7,65,0.24,RA,,0.55,WeatherDisplay:10.37,2013-05-02 16:26:00,
2013-05-02 11:27:00,40.0,29.2,30.75,North,360,14.2,19.6,65,0.24,RA,,0.55,WeatherDisplay:10.37,2013-05-02 16:27:00,
2013-05-02 11:28:00,40.0,28.8,30.75,NNE,22,12.0,16.1,64,0.24,RA,,0.56,WeatherDisplay:10.37,2013-05-02 16:28:00,
2013-05-02 11:32:00,40.0,28.8,30.75,NNW,337,17.3,24.2,64,0.25,RA,,0.57,WeatherDisplay:10.37,2013-05-02 16:32:00,
2013-05-02 11:34:00,39.0,27.8,30.75,North,360,16.6,26.5,64,0.23,RA,,0.57,WeatherDisplay:10.37,2013-05-02 16:34:00,
2013-05-02 11:37:00,40.0,28.8,30.75,NNW,337,14.5,19.6,64,0.22,RA,,0.57,WeatherDisplay:10.37,2013-05-02 16:37:00,
2013-05-02 11:39:00,40.0,28.4,30.75,NNW,337,13.7,19.0,63,0.22,RA,,0.57,WeatherDisplay:10.37,2013-05-02 16:39:00,
2013-05-02 11:42:00,40.0,28.8,30.75,North,360,12.6,26.5,64,0.21,RA,,0.58,WeatherDisplay:10.37,2013-05-02 16:42:00,
2013-05-02 11:43:00,40.0,28.8,30.75,NNW,337,16.8,19.6,64,0.21,RA,,0.58,WeatherDisplay:10.37,2013-05-02 16:43:00,
2013-05-02 11:44:00,40.0,28.0,30.75,North,360,12.4,19.6,62,0.21,RA,,0.58,WeatherDisplay:10.37,2013-05-02 16:44:00,
2013-05-02 11:47:00,40.0,28.0,30.75,NNW,337,19.3,26.5,62,0.20,RA,,0.59,WeatherDisplay:10.37,2013-05-02 16:47:00,
2013-05-02 11:48:00,40.0,28.4,30.75,NNW,337,19.1,26.5,63,0.20,RA,,0.59,WeatherDisplay:10.37,2013-05-02 16:48:00,
2013-05-02 11:50:00,40.0,28.0,30.75,North,360,18.1,24.2,62,0.20,RA,,0.59,WeatherDisplay:10.37,2013-05-02 16:50:00,
2013-05-02 11:52:00,40.0,28.4,30.75,NNE,22,14.4,26.5,63,0.19,RA,,0.59,WeatherDisplay:10.37,2013-05-02 16:52:00,
2013-05-02 11:53:00,40.0,28.0,30.75,North,360,14.3,20.7,62,0.21,RA,,0.61,WeatherDisplay:10.37,2013-05-02 16:53:00,
2013-05-02 11:55:00,40.0,28.0,30.75,North,360,15.3,19.6,62,0.20,RA,,0.61,WeatherDisplay:10.37,2013-05-02 16:55:00,
2013-05-02 11:57:00,40.0,28.4,30.75,NE,45,15.2,21.9,63,0.20,RA,,0.62,WeatherDisplay:10.37,2013-05-02 16:57:00,
2013-05-02 11:58:00,41.0,29.4,30.75,North,360,11.1,19.6,63,0.20,RA,,0.62,WeatherDisplay:10.37,2013-05-02 16:58:00,
2013-05-02 12:00:00,40.0,27.6,30.75,NNW,337,20.6,25.3,61,0.21,RA,,0.64,WeatherDisplay:10.37,2013-05-02 17:00:00,
2013-05-02 12:02:00,40.0,27.6,30.75,NNE,22,15.9,23.0,61,0.21,RA,,0.65,WeatherDisplay:10.37,2013-05-02 17:02:00,
2013-05-02 12:03:00,41.0,28.2,30.75,NNW,337,17.1,26.5,60,0.20,RA,,0.65,WeatherDisplay:10.37,2013-05-02 17:03:00,
2013-05-02 12:04:00,40.0,27.6,30.75,NNW,337,17.8,25.3,61,0.20,RA,,0.65,WeatherDisplay:10.37,2013-05-02 17:04:00,
2013-05-02 12:05:00,41.0,28.2,30.75,North,360,17.6,25.0,60,0.20,RA,,0.65,WeatherDisplay:10.37,2013-05-02 17:05:00,
2013-05-02 12:08:00,41.0,28.6,30.74,NNW,337,10.9,19.6,61,0.18,RA,,0.66,WeatherDisplay:10.37,2013-05-02 17:08:00,
2013-05-02 12:09:00,41.0,28.2,30.74,North,360,14.9,20.7,60,0.18,RA,,0.66,WeatherDisplay:10.37,2013-05-02 17:09:00,
2013-05-02 12:11:00,41.0,28.2,30.74,NNW,337,18.4,23.0,60,0.18,RA,,0.66,WeatherDisplay:10.37,2013-05-02 17:11:00,
2013-05-02 12:13:00,41.0,28.2,30.74,North,360,17.4,25.3,60,0.17,RA,,0.67,WeatherDisplay:10.37,2013-05-02 17:13:00,
2013-05-02 12:14:00,41.0,28.6,30.74,North,360,18.1,23.0,61,0.17,RA,,0.67,WeatherDisplay:10.37,2013-05-02 17:14:00,
2013-05-02 12:17:00,41.0,28.2,30.73,NNE,22,17.8,21.9,60,0.17,RA,,0.68,WeatherDisplay:10.37,2013-05-02 17:17:00,
2013-05-02 12:18:00,41.0,27.8,30.73,NNW,337,16.5,21.0,59,0.17,RA,,0.69,WeatherDisplay:10.37,2013-05-02 17:18:00,
2013-05-02 12:19:00,41.0,28.6,30.73,NNE,22,20.2,26.5,61,0.17,RA,,0.69,WeatherDisplay:10.37,2013-05-02 17:19:00,
2013-05-02 12:20:00,41.0,28.6,30.73,NNW,337,15.6,21.9,61,0.16,RA,,0.70,WeatherDisplay:10.37,2013-05-02 17:20:00,
2013-05-02 12:22:00,42.0,29.5,30.73,NNE,22,16.3,24.2,61,0.17,RA,,0.70,WeatherDisplay:10.37,2013-05-02 17:22:00,
2013-05-02 12:23:00,41.0,28.6,30.73,NNW,337,13.6,21.9,61,0.16,RA,,0.71,WeatherDisplay:10.37,2013-05-02 17:23:00,
2013-05-02 12:24:00,41.0,28.6,30.73,NNW,337,16.8,19.6,61,0.17,RA,,0.71,WeatherDisplay:10.37,2013-05-02 17:24:00,
2013-05-02 12:25:00,41.0,28.2,30.73,NNE,22,18.4,24.2,60,0.17,RA,,0.71,WeatherDisplay:10.37,2013-05-02 17:25:00,
2013-05-02 12:27:00,41.0,28.6,30.74,NNW,337,14.7,19.6,61,0.17,RA,,0.72,WeatherDisplay:10.37,2013-05-02 17:27:00,
2013-05-02 12:28:00,41.0,28.6,30.74,NNW,337,19.7,27.6,61,0.16,RA,,0.72,WeatherDisplay:10.37,2013-05-02 17:28:00,
2013-05-02 12:29:00,41.0,28.6,30.74,NNW,337,16.3,27.6,61,0.16,RA,,0.72,WeatherDisplay:10.37,2013-05-02 17:29:00,
2013-05-02 12:30:00,41.0,29.0,30.74,NNW,337,14.2,19.6,62,0.16,RA,,0.72,WeatherDisplay:10.37,2013-05-02 17:30:00,
2013-05-02 12:32:00,41.0,28.2,30.74,NNW,337,20.6,26.5,60,0.16,RA,,0.73,WeatherDisplay:10.37,2013-05-02 17:32:00,
2013-05-02 12:33:00,41.0,28.2,30.74,North,360,17.2,24.2,60,0.16,RA,,0.73,WeatherDisplay:10.37,2013-05-02 17:33:00,
2013-05-02 12:34:00,41.0,28.2,30.74,North,360,16.5,23.0,60,0.16,RA,,0.73,WeatherDisplay:10.37,2013-05-02 17:34:00,
2013-05-02 12:35:00,41.0,28.2,30.74,NNW,337,10.9,25.3,60,0.16,RA,,0.74,WeatherDisplay:10.37,2013-05-02 17:35:00,
2013-05-02 12:36:00,41.0,28.2,30.74,NNE,22,16.0,21.9,60,0.17,RA,,0.74,WeatherDisplay:10.37,2013-05-02 17:36:00,
2013-05-02 12:37:00,41.0,28.2,30.73,NNW,337,19.8,25.3,60,0.17,RA,,0.74,WeatherDisplay:10.37,2013-05-02 17:37:00,
2013-05-02 12:38:00,41.0,28.2,30.73,NNW,337,18.0,25.3,60,0.18,RA,,0.75,WeatherDisplay:10.37,2013-05-02 17:38:00,
2013-05-02 12:39:00,41.0,28.2,30.73,NNE,22,18.3,26.5,60,0.18,RA,,0.75,WeatherDisplay:10.37,2013-05-02 17:39:00,
2013-05-02 12:40:00,41.0,28.2,30.73,NNW,337,18.8,26.5,60,0.18,RA,,0.75,WeatherDisplay:10.37,2013-05-02 17:40:00,
2013-05-02 12:41:00,41.0,28.2,30.73,North,360,18.1,25.3,60,0.18,RA,,0.76,WeatherDisplay:10.37,2013-05-02 17:41:00,
2013-05-02 12:42:00,41.0,28.2,30.73,North,360,15.9,25.0,60,0.18,RA,,0.76,WeatherDisplay:10.37,2013-05-02 17:42:00,
2013-05-02 12:43:00,41.0,26.9,30.73,NNE,22,22.2,26.0,57,0.18,RA,,0.77,WeatherDisplay:10.37,2013-05-02 17:43:00,
2013-05-02 12:44:00,41.0,27.8,30.73,North,360,17.4,28.8,59,0.19,RA,,0.77,WeatherDisplay:10.37,2013-05-02 17:44:00,
2013-05-02 12:45:00,41.0,27.8,30.73,WSW,247,9.2,24.2,59,0.19,RA,,0.77,WeatherDisplay:10.37,2013-05-02 17:45:00,
2013-05-02 12:46:00,42.0,27.9,30.74,North,360,9.0,25.3,57,0.20,RA,,0.78,WeatherDisplay:10.37,2013-05-02 17:46:00,
2013-05-02 12:48:00,42.0,28.3,30.74,North,360,18.6,26.5,58,0.19,RA,,0.78,WeatherDisplay:10.37,2013-05-02 17:48:00,
2013-05-02 12:49:00,42.0,28.3,30.74,North,360,18.9,23.0,58,0.20,RA,,0.79,WeatherDisplay:10.37,2013-05-02 17:49:00,
2013-05-02 12:50:00,42.0,28.7,30.74,NNE,22,20.9,26.5,59,0.20,RA,,0.79,WeatherDisplay:10.37,2013-05-02 17:50:00,
2013-05-02 12:51:00,42.0,28.7,30.74,NNE,22,18.2,27.6,59,0.20,RA,,0.80,WeatherDisplay:10.37,2013-05-02 17:51:00,
2013-05-02 12:53:00,42.0,29.1,30.74,NNW,337,17.2,25.3,60,0.19,RA,,0.80,WeatherDisplay:10.37,2013-05-02 17:53:00,
2013-05-02 12:54:00,42.0,29.1,30.74,NNE,22,14.6,23.0,60,0.19,RA,,0.80,WeatherDisplay:10.37,2013-05-02 17:54:00,
2013-05-02 12:55:00,42.0,29.1,30.74,North,360,14.9,20.7,60,0.20,RA,,0.81,WeatherDisplay:10.37,2013-05-02 17:55:00,
2013-05-02 12:56:00,42.0,27.9,30.73,NNW,337,18.6,23.0,57,0.20,RA,,0.81,WeatherDisplay:10.37,2013-05-02 17:56:00,
2013-05-02 12:59:00,42.0,27.9,30.73,NNW,337,19.1,22.0,57,0.20,RA,,0.82,WeatherDisplay:10.37,2013-05-02 17:59:00,
2013-05-02 13:00:00,42.0,28.3,30.73,NNE,22,20.3,26.5,58,0.19,RA,,0.83,WeatherDisplay:10.37,2013-05-02 18:00:00,
2013-05-02 13:01:00,42.0,27.9,30.73,NNW,337,16.5,28.0,57,0.19,RA,,0.83,WeatherDisplay:10.37,2013-05-02 18:01:00,
2013-05-02 13:04:00,42.0,27.9,30.73,NNW,337,20.2,26.5,57,0.19,RA,,0.84,WeatherDisplay:10.37,2013-05-02 18:04:00,
2013-05-02 13:05:00,42.0,27.9,30.73,NNE,22,20.4,28.8,57,0.20,RA,,0.85,WeatherDisplay:10.37,2013-05-02 18:05:00,
2013-05-02 13:06:00,42.0,26.5,30.73,NNW,337,21.3,24.2,54,0.20,RA,,0.86,WeatherDisplay:10.37,2013-05-02 18:06:00,
2013-05-02 13:09:00,42.0,27.9,30.73,NNW,337,21.0,29.9,57,0.20,RA,,0.86,WeatherDisplay:10.37,2013-05-02 18:09:00,
2013-05-02 13:11:00,41.0,26.5,30.73,NNW,337,23.7,29.9,56,0.21,RA,,0.87,WeatherDisplay:10.37,2013-05-02 18:11:00,
2013-05-02 13:12:00,41.0,26.5,30.73,NNE,22,22.6,28.8,56,0.21,RA,,0.87,WeatherDisplay:10.37,2013-05-02 18:12:00,
2013-05-02 13:14:00,42.0,27.0,30.73,NNW,337,21.6,27.0,55,0.21,RA,,0.88,WeatherDisplay:10.37,2013-05-02 18:14:00,
2013-05-02 13:16:00,42.0,27.4,30.73,North,360,23.5,28.8,56,0.21,RA,,0.89,WeatherDisplay:10.37,2013-05-02 18:16:00,
2013-05-02 13:17:00,41.0,26.9,30.73,NNW,337,21.6,29.9,57,0.21,RA,,0.89,WeatherDisplay:10.37,2013-05-02 18:17:00,
2013-05-02 13:19:00,41.0,26.9,30.73,North,360,21.6,31.1,57,0.20,RA,,0.90,WeatherDisplay:10.37,2013-05-02 18:19:00,
2013-05-02 13:20:00,41.0,26.9,30.73,North,360,20.4,28.0,57,0.21,RA,,0.90,WeatherDisplay:10.37,2013-05-02 18:20:00,
2013-05-02 13:22:00,41.0,26.5,30.73,North,360,22.0,29.9,56,0.20,RA,,0.90,WeatherDisplay:10.37,2013-05-02 18:22:00,
2013-05-02 13:24:00,42.0,27.4,30.73,NNW,337,22.6,28.8,56,0.20,RA,,0.91,WeatherDisplay:10.37,2013-05-02 18:24:00,
2013-05-02 13:25:00,42.0,27.4,30.73,NNW,337,22.6,32.2,56,0.20,RA,,0.91,WeatherDisplay:10.37,2013-05-02 18:25:00,
2013-05-02 13:27:00,42.0,27.9,30.74,NNW,337,15.5,20.7,57,0.19,RA,,0.91,WeatherDisplay:10.37,2013-05-02 18:27:00,
2013-05-02 13:28:00,42.0,27.4,30.74,NNW,337,16.3,28.0,56,0.19,RA,,0.91,WeatherDisplay:10.37,2013-05-02 18:28:00,
2013-05-02 13:29:00,42.0,27.4,30.74,NNE,22,20.2,33.4,56,0.20,RA,,0.92,WeatherDisplay:10.37,2013-05-02 18:29:00,
2013-05-02 13:30:00,42.0,27.4,30.74,North,360,20.3,26.5,56,0.20,RA,,0.92,WeatherDisplay:10.37,2013-05-02 18:30:00,
2013-05-02 13:32:00,42.0,27.4,30.74,North,360,20.8,28.8,56,0.19,RA,,0.92,WeatherDisplay:10.37,2013-05-02 18:32:00,
2013-05-02 13:33:00,42.0,27.4,30.74,North,360,21.1,27.6,56,0.19,RA,,0.92,WeatherDisplay:10.37,2013-05-02 18:33:00,
2013-05-02 13:34:00,42.0,27.4,30.74,North,360,19.6,28.8,56,0.19,RA,,0.92,WeatherDisplay:10.37,2013-05-02 18:34:00,
2013-05-02 13:35:00,42.0,27.9,30.74,NNW,337,18.2,28.8,57,0.19,RA,,0.92,WeatherDisplay:10.37,2013-05-02 18:35:00,
2013-05-02 13:37:00,42.0,28.3,30.73,North,360,14.8,26.5,58,0.18,RA,,0.92,WeatherDisplay:10.37,2013-05-02 18:37:00,
2013-05-02 13:38:00,43.0,29.6,30.73,NNW,337,19.8,29.9,59,0.17,RA,,0.92,WeatherDisplay:10.37,2013-05-02 18:38:00,
2013-05-02 13:40:00,43.0,29.6,30.73,North,360,19.5,26.5,59,0.18,RA,,0.93,WeatherDisplay:10.37,2013-05-02 18:40:00,
2013-05-02 13:42:00,43.0,30.5,30.73,NNW,337,13.5,21.9,61,0.17,RA,,0.93,WeatherDisplay:10.37,2013-05-02 18:42:00,
2013-05-02 13:43:00,43.0,29.6,30.73,North,360,14.2,21.0,59,0.17,RA,,0.93,WeatherDisplay:10.37,2013-05-02 18:43:00,
2013-05-02 13:44:00,43.0,28.8,30.73,NNW,337,19.6,28.8,57,0.16,RA,,0.93,WeatherDisplay:10.37,2013-05-02 18:44:00,
2013-05-02 13:45:00,43.0,30.1,30.73,North,360,24.7,34.5,60,0.16,RA,,0.93,WeatherDisplay:10.37,2013-05-02 18:45:00,
2013-05-02 13:46:00,43.0,29.6,30.72,NNW,337,19.3,29.9,59,0.15,RA,,0.93,WeatherDisplay:10.37,2013-05-02 18:46:00,
2013-05-02 13:48:00,43.0,30.5,30.72,North,360,17.6,24.2,61,0.15,RA,,0.93,WeatherDisplay:10.37,2013-05-02 18:48:00,
2013-05-02 13:49:00,43.0,30.5,30.72,NNW,337,14.2,17.3,61,0.14,CLR,,0.93,WeatherDisplay:10.37,2013-05-02 18:49:00,
2013-05-02 13:50:00,43.0,30.5,30.72,NNW,337,14.7,17.3,61,0.14,CLR,,0.93,WeatherDisplay:10.37,2013-05-02 18:50:00,
2013-05-02 13:51:00,43.0,29.6,30.72,NNW,337,19.2,21.9,59,0.14,CLR,,0.93,WeatherDisplay:10.37,2013-05-02 18:51:00,
2013-05-02 13:53:00,43.0,29.2,30.72,NNW,337,19.2,33.0,58,0.13,CLR,,0.93,WeatherDisplay:10.37,2013-05-02 18:53:00,
2013-05-02 13:54:00,43.0,28.4,30.72,NNW,337,22.8,33.4,56,0.13,CLR,,0.93,WeatherDisplay:10.37,2013-05-02 18:54:00,
2013-05-02 13:56:00,43.0,27.9,30.71,North,360,19.7,33.4,55,0.12,CLR,,0.93,WeatherDisplay:10.37,2013-05-02 18:56:00,
2013-05-02 13:58:00,42.0,26.5,30.71,North,360,21.4,29.0,54,0.11,CLR,,0.93,WeatherDisplay:10.37,2013-05-02 18:58:00,
2013-05-02 13:59:00,42.0,26.5,30.71,NNW,337,21.7,29.9,54,0.11,CLR,,0.93,WeatherDisplay:10.37,2013-05-02 18:59:00,
2013-05-02 14:01:00,43.0,28.4,30.71,North,360,18.3,27.6,56,0.10,CLR,,0.93,WeatherDisplay:10.37,2013-05-02 19:01:00,
2013-05-02 14:03:00,43.0,29.2,30.71,NNW,337,13.2,26.5,58,0.09,CLR,,0.93,WeatherDisplay:10.37,2013-05-02 19:03:00,
2013-05-02 14:04:00,43.0,29.2,30.71,NNW,337,15.4,20.0,58,0.09,CLR,,0.93,WeatherDisplay:10.37,2013-05-02 19:04:00,
2013-05-02 14:06:00,43.0,30.1,30.71,NNE,22,17.2,24.2,60,0.08,CLR,,0.93,WeatherDisplay:10.37,2013-05-02 19:06:00,
2013-05-02 14:09:00,43.0,30.9,30.71,NNW,337,18.5,28.8,62,0.07,CLR,,0.93,WeatherDisplay:10.37,2013-05-02 19:09:00,
2013-05-02 14:10:00,43.0,30.9,30.71,North,360,19.0,26.5,62,0.06,CLR,,0.93,WeatherDisplay:10.37,2013-05-02 19:10:00,
2013-05-02 14:11:00,43.0,30.9,30.71,NNE,22,17.8,26.5,62,0.06,CLR,,0.93,WeatherDisplay:10.37,2013-05-02 19:11:00,
2013-05-02 14:12:00,43.0,30.9,30.71,NNW,337,18.3,27.6,62,0.06,CLR,,0.93,WeatherDisplay:10.37,2013-05-02 19:12:00,
2013-05-02 14:14:00,43.0,30.5,30.71,NNW,337,18.9,23.0,61,0.05,CLR,,0.93,WeatherDisplay:10.37,2013-05-02 19:14:00,
2013-05-02 14:15:00,43.0,30.5,30.71,NNW,337,22.4,28.8,61,0.05,CLR,,0.93,WeatherDisplay:10.37,2013-05-02 19:15:00,
2013-05-02 14:16:00,42.0,29.1,30.71,NNW,337,15.5,20.7,60,0.04,CLR,,0.93,WeatherDisplay:10.37,2013-05-02 19:16:00,
2013-05-02 14:17:00,42.0,29.5,30.71,NNW,337,15.4,20.7,61,0.04,CLR,,0.93,WeatherDisplay:10.37,2013-05-02 19:17:00,
2013-05-02 14:19:00,42.0,29.5,30.71,NNW,337,16.7,19.6,61,0.04,CLR,,0.93,WeatherDisplay:10.37,2013-05-02 19:19:00,
2013-05-02 14:20:00,42.0,29.5,30.71,North,360,16.2,20.0,61,0.03,CLR,,0.93,WeatherDisplay:10.37,2013-05-02 19:20:00,
2013-05-02 14:21:00,42.0,28.7,30.71,NNW,337,23.6,27.0,59,0.03,CLR,,0.93,WeatherDisplay:10.37,2013-05-02 19:21:00,
2013-05-02 14:22:00,42.0,28.3,30.71,NNW,337,23.8,29.9,58,0.03,CLR,,0.93,WeatherDisplay:10.37,2013-05-02 19:22:00,
2013-05-02 14:25:00,42.0,28.7,30.71,North,360,22.9,36.0,59,0.02,CLR,,0.93,WeatherDisplay:10.37,2013-05-02 19:25:00,
2013-05-02 14:27:00,42.0,28.3,30.71,NNW,337,21.5,31.1,58,0.02,CLR,,0.93,WeatherDisplay:10.37,2013-05-02 19:27:00,
2013-05-02 14:28:00,42.0,28.3,30.71,North,360,22.3,29.9,58,0.02,CLR,,0.93,WeatherDisplay:10.37,2013-05-02 19:28:00,
2013-05-02 14:30:00,42.0,28.3,30.71,NNE,22,12.4,26.5,58,0.01,CLR,,0.93,WeatherDisplay:10.37,2013-05-02 19:30:00,
2013-05-02 14:31:00,42.0,28.3,30.71,North,360,18.0,25.3,58,0.01,CLR,,0.93,WeatherDisplay:10.37,2013-05-02 19:31:00,
2013-05-02 14:32:00,42.0,28.3,30.71,North,360,16.9,20.7,58,0.01,CLR,,0.93,WeatherDisplay:10.37,2013-05-02 19:32:00,
2013-05-02 14:33:00,42.0,27.9,30.71,North,360,17.6,22.0,57,0.01,CLR,,0.93,WeatherDisplay:10.37,2013-05-02 19:33:00,
2013-05-02 14:35:00,42.0,27.4,30.71,North,360,22.8,29.0,56,0.01,CLR,,0.93,WeatherDisplay:10.37,2013-05-02 19:35:00,
2013-05-02 14:36:00,42.0,27.4,30.71,NNW,337,25.4,33.4,56,0.01,CLR,,0.93,WeatherDisplay:10.37,2013-05-02 19:36:00,
2013-05-02 14:38:00,42.0,27.9,30.70,NNW,337,15.3,24.2,57,0.01,CLR,,0.93,WeatherDisplay:10.37,2013-05-02 19:38:00,
2013-05-02 14:40:00,42.0,27.4,30.70,NNE,22,16.0,26.5,56,0.00,CLR,,0.93,WeatherDisplay:10.37,2013-05-02 19:40:00,
2013-05-02 14:41:00,42.0,27.4,30.70,WSW,247,16.4,21.9,56,0.00,CLR,,0.93,WeatherDisplay:10.37,2013-05-02 19:41:00,
2013-05-02 14:43:00,43.0,27.9,30.70,NNW,337,15.2,23.0,55,0.00,CLR,,0.93,WeatherDisplay:10.37,2013-05-02 19:43:00,
2013-05-02 14:44:00,43.0,28.4,30.70,NNE,22,14.9,23.0,56,0.00,CLR,,0.93,WeatherDisplay:10.37,2013-05-02 19:44:00,
2013-05-02 14:45:00,43.0,28.8,30.70,NNW,337,16.7,25.3,57,0.00,CLR,,0.93,WeatherDisplay:10.37,2013-05-02 19:45:00,
2013-05-02 14:46:00,43.0,28.8,30.70,NNW,337,16.8,23.0,57,0.00,CLR,,0.93,WeatherDisplay:10.37,2013-05-02 19:46:00,
2013-05-02 14:48:00,43.0,28.8,30.71,NNW,337,20.3,28.8,57,0.00,CLR,,0.93,WeatherDisplay:10.37,2013-05-02 19:48:00,
2013-05-02 14:49:00,43.0,28.4,30.71,NNW,337,20.1,28.8,56,0.00,CLR,,0.93,WeatherDisplay:10.37,2013-05-02 19:49:00,
2013-05-02 14:51:00,43.0,28.4,30.71,North,360,20.6,26.5,56,0.00,CLR,,0.93,WeatherDisplay:10.37,2013-05-02 19:51:00,
2013-05-02 14:54:00,43.0,28.8,30.71,NNW,337,21.9,27.6,57,0.00,CLR,,0.93,WeatherDisplay:10.37,2013-05-02 19:54:00,
2013-05-02 14:56:00,43.0,28.4,30.70,NNW,337,13.7,26.5,56,0.00,CLR,,0.93,WeatherDisplay:10.37,2013-05-02 19:56:00,
2013-05-02 14:57:00,43.0,28.4,30.70,NNW,337,17.9,26.0,56,0.00,CLR,,0.93,WeatherDisplay:10.37,2013-05-02 19:57:00,
2013-05-02 14:59:00,43.0,27.9,30.70,NNE,22,20.1,29.0,55,0.00,CLR,,0.93,WeatherDisplay:10.37,2013-05-02 19:59:00,
2013-05-02 15:01:00,43.0,28.4,30.70,NNW,337,21.2,27.0,56,0.00,CLR,,0.93,WeatherDisplay:10.37,2013-05-02 20:01:00,
2013-05-02 15:02:00,43.0,27.9,30.70,NNW,337,21.1,26.5,55,0.00,CLR,,0.93,WeatherDisplay:10.37,2013-05-02 20:02:00,
2013-05-02 15:04:00,43.0,27.9,30.70,North,360,19.5,34.5,55,0.00,CLR,,0.93,WeatherDisplay:10.37,2013-05-02 20:04:00,
2013-05-02 15:05:00,43.0,27.9,30.70,NNW,337,18.8,26.5,55,0.00,CLR,,0.93,WeatherDisplay:10.37,2013-05-02 20:05:00,
2013-05-02 15:06:00,44.0,29.7,30.69,North,360,17.4,26.5,57,0.00,CLR,,0.93,WeatherDisplay:10.37,2013-05-02 20:06:00,
2013-05-02 15:07:00,44.0,29.7,30.69,North,360,17.2,21.9,57,0.00,CLR,,0.93,WeatherDisplay:10.37,2013-05-02 20:07:00,
2013-05-02 15:08:00,44.0,29.7,30.69,NNE,22,14.3,25.3,57,0.00,CLR,,0.93,WeatherDisplay:10.37,2013-05-02 20:08:00,
2013-05-02 15:09:00,44.0,29.7,30.69,NNE,22,16.2,25.3,57,0.00,CLR,,0.93,WeatherDisplay:10.37,2013-05-02 20:09:00,
2013-05-02 15:10:00,44.0,29.7,30.69,North,360,15.5,24.2,57,0.00,CLR,,0.93,WeatherDisplay:10.37,2013-05-02 20:10:00,
2013-05-02 15:11:00,44.0,29.7,30.69,NNW,337,16.5,23.0,57,0.00,CLR,,0.93,WeatherDisplay:10.37,2013-05-02 20:11:00,
2013-05-02 15:12:00,44.0,29.7,30.69,NNW,337,18.5,25.3,57,0.00,CLR,,0.93,WeatherDisplay:10.37,2013-05-02 20:12:00,
2013-05-02 15:13:00,44.0,29.3,30.69,NNW,337,19.3,25.3,56,0.00,CLR,,0.93,WeatherDisplay:10.37,2013-05-02 20:13:00,
2013-05-02 15:14:00,44.0,29.7,30.69,North,360,13.5,21.9,57,0.00,CLR,,0.93,WeatherDisplay:10.37,2013-05-02 20:14:00,
2013-05-02 15:15:00,44.0,29.7,30.69,WSW,247,9.1,21.9,57,0.00,CLR,,0.93,WeatherDisplay:10.37,2013-05-02 20:15:00,
2013-05-02 15:17:00,44.0,28.9,30.69,NNW,337,17.1,21.9,55,0.00,CLR,,0.93,WeatherDisplay:10.37,2013-05-02 20:17:00,
2013-05-02 15:18:00,44.0,28.9,30.69,NNE,22,21.3,32.2,55,0.00,CLR,,0.93,WeatherDisplay:10.37,2013-05-02 20:18:00,
2013-05-02 15:20:00,44.0,29.7,30.69,NNW,337,15.3,25.3,57,0.00,CLR,,0.93,WeatherDisplay:10.37,2013-05-02 20:20:00,
2013-05-02 15:22:00,44.0,28.9,30.69,NNW,337,21.2,26.5,55,0.00,CLR,,0.93,WeatherDisplay:10.37,2013-05-02 20:22:00,
2013-05-02 15:23:00,44.0,29.3,30.69,North,360,19.8,29.9,56,0.00,CLR,,0.93,WeatherDisplay:10.37,2013-05-02 20:23:00,
2013-05-02 15:25:00,44.0,28.9,30.69,NNE,22,25.7,31.1,55,0.00,CLR,,0.93,WeatherDisplay:10.37,2013-05-02 20:25:00,
2013-05-02 15:27:00,45.0,30.2,30.68,NNW,337,21.0,26.5,56,0.00,CLR,,0.93,WeatherDisplay:10.37,2013-05-02 20:27:00,
2013-05-02 15:28:00,45.0,30.2,30.68,NNW,337,21.1,29.9,56,0.00,CLR,,0.93,WeatherDisplay:10.37,2013-05-02 20:28:00,
2013-05-02 15:30:00,45.0,31.1,30.68,WSW,247,13.0,25.3,58,0.00,CLR,,0.93,WeatherDisplay:10.37,2013-05-02 20:30:00,
2013-05-02 15:32:00,45.0,28.9,30.68,North,360,24.4,28.8,53,0.00,CLR,,0.93,WeatherDisplay:10.37,2013-05-02 20:32:00,
2013-05-02 15:33:00,45.0,28.9,30.68,NNW,337,23.8,28.8,53,0.00,CLR,,0.93,WeatherDisplay:10.37,2013-05-02 20:33:00,
2013-05-02 15:35:00,45.0,29.8,30.68,NNW,337,18.8,21.9,55,0.00,CLR,,0.93,WeatherDisplay:10.37,2013-05-02 20:35:00,
2013-05-02 15:38:00,46.0,30.7,30.67,NNW,337,15.3,23.0,55,0.00,CLR,,0.93,WeatherDisplay:10.37,2013-05-02 20:38:00,
2013-05-02 15:39:00,46.0,31.2,30.67,NNW,337,15.7,23.0,56,0.00,CLR,,0.93,WeatherDisplay:10.37,2013-05-02 20:39:00,
2013-05-02 15:40:00,46.0,31.2,30.67,NNE,22,13.5,18.4,56,0.00,CLR,,0.93,WeatherDisplay:10.37,2013-05-02 20:40:00,
2013-05-02 15:43:00,46.0,31.6,30.67,NNW,337,13.1,19.0,57,0.00,CLR,,0.93,WeatherDisplay:10.37,2013-05-02 20:43:00,
2013-05-02 15:44:00,46.0,31.6,30.67,NNW,337,15.8,23.0,57,0.00,CLR,,0.93,WeatherDisplay:10.37,2013-05-02 20:44:00,
2013-05-02 15:45:00,46.0,31.6,30.67,NNW,337,13.3,23.0,57,0.00,CLR,,0.93,WeatherDisplay:10.37,2013-05-02 20:45:00,
2013-05-02 15:46:00,46.0,30.7,30.67,North,360,16.0,19.6,55,0.00,CLR,,0.93,WeatherDisplay:10.37,2013-05-02 20:46:00,
2013-05-02 15:49:00,46.0,29.8,30.67,NNW,337,18.8,29.9,53,0.00,CLR,,0.93,WeatherDisplay:10.37,2013-05-02 20:49:00,
2013-05-02 15:50:00,46.0,29.8,30.67,NNW,337,21.5,26.5,53,0.00,CLR,,0.93,WeatherDisplay:10.37,2013-05-02 20:50:00,
2013-05-02 15:51:00,46.0,30.7,30.67,North,360,19.8,26.5,55,0.00,CLR,,0.93,WeatherDisplay:10.37,2013-05-02 20:51:00,
2013-05-02 15:54:00,46.0,30.3,30.67,NNW,337,7.7,23.0,54,0.00,CLR,,0.93,WeatherDisplay:10.37,2013-05-02 20:54:00,
2013-05-02 15:55:00,46.0,30.3,30.67,NNW,337,18.5,26.5,54,0.00,CLR,,0.93,WeatherDisplay:10.37,2013-05-02 20:55:00,
2013-05-02 15:56:00,46.0,30.3,30.66,NNW,337,19.7,26.5,54,0.00,CLR,,0.93,WeatherDisplay:10.37,2013-05-02 20:56:00,
2013-05-02 15:57:00,46.0,30.3,30.66,NNW,337,18.7,26.5,54,0.00,CLR,,0.93,WeatherDisplay:10.37,2013-05-02 20:57:00,
2013-05-02 15:59:00,45.0,28.9,30.66,NNE,22,11.1,26.5,53,0.00,CLR,,0.93,WeatherDisplay:10.37,2013-05-02 20:59:00,
2013-05-02 16:00:00,45.0,28.9,30.66,NNW,337,16.7,21.9,53,0.00,CLR,,0.93,WeatherDisplay:10.37,2013-05-02 21:00:00,
2013-05-02 16:01:00,46.0,30.7,30.66,North,360,16.0,25.0,55,0.00,CLR,,0.93,WeatherDisplay:10.37,2013-05-02 21:01:00,
2013-05-02 16:02:00,46.0,30.7,30.66,NNW,337,17.7,25.3,55,0.00,CLR,,0.93,WeatherDisplay:10.37,2013-05-02 21:02:00,
2013-05-02 16:04:00,46.0,30.7,30.66,NNW,337,13.3,18.4,55,0.00,CLR,,0.93,WeatherDisplay:10.37,2013-05-02 21:04:00,
2013-05-02 16:06:00,46.0,29.8,30.66,North,360,17.4,26.5,53,0.00,CLR,,0.93,WeatherDisplay:10.37,2013-05-02 21:06:00,
2013-05-02 16:07:00,46.0,30.3,30.66,North,360,15.5,23.0,54,0.00,CLR,,0.93,WeatherDisplay:10.37,2013-05-02 21:07:00,
2013-05-02 16:09:00,46.0,30.3,30.66,NNE,22,18.0,24.2,54,0.00,CLR,,0.93,WeatherDisplay:10.37,2013-05-02 21:09:00,
2013-05-02 16:10:00,46.0,30.3,30.66,NNW,337,17.1,25.0,54,0.00,CLR,,0.93,WeatherDisplay:10.37,2013-05-02 21:10:00,
2013-05-02 16:11:00,46.0,30.7,30.66,North,360,15.1,32.2,55,0.00,CLR,,0.93,WeatherDisplay:10.37,2013-05-02 21:11:00,
2013-05-02 16:12:00,46.0,30.7,30.66,NNW,337,14.7,26.5,55,0.00,CLR,,0.93,WeatherDisplay:10.37,2013-05-02 21:12:00,
2013-05-02 16:14:00,46.0,31.6,30.66,NNW,337,13.6,20.7,57,0.00,CLR,,0.93,WeatherDisplay:10.37,2013-05-02 21:14:00,
2013-05-02 16:15:00,46.0,30.3,30.66,NNW,337,14.0,18.4,54,0.00,CLR,,0.93,WeatherDisplay:10.37,2013-05-02 21:15:00,
2013-05-02 16:17:00,46.0,29.3,30.65,NW,315,19.3,27.6,52,0.00,CLR,,0.93,WeatherDisplay:10.37,2013-05-02 21:17:00,
2013-05-02 16:19:00,47.0,30.3,30.65,North,360,18.7,22.0,52,0.00,CLR,,0.93,WeatherDisplay:10.37,2013-05-02 21:19:00,
2013-05-02 16:20:00,46.0,28.9,30.65,NNW,337,20.8,24.2,51,0.00,CLR,,0.93,WeatherDisplay:10.37,2013-05-02 21:20:00,
2013-05-02 16:22:00,46.0,29.8,30.65,NNW,337,17.8,26.5,53,0.00,CLR,,0.93,WeatherDisplay:10.37,2013-05-02 21:22:00,
2013-05-02 16:23:00,46.0,29.8,30.65,NNE,22,19.3,25.3,53,0.00,CLR,,0.93,WeatherDisplay:10.37,2013-05-02 21:23:00,
2013-05-02 16:24:00,46.0,29.8,30.65,North,360,14.6,24.2,53,0.00,CLR,,0.93,WeatherDisplay:10.37,2013-05-02 21:24:00,
2013-05-02 16:25:00,47.0,31.2,30.65,North,360,14.4,19.6,54,0.00,CLR,,0.93,WeatherDisplay:10.37,2013-05-02 21:25:00,
2013-05-02 16:27:00,47.0,31.2,30.65,NNW,337,14.1,19.6,54,0.00,CLR,,0.93,WeatherDisplay:10.37,2013-05-02 21:27:00,
2013-05-02 16:28:00,47.0,29.8,30.65,NNW,337,20.2,29.9,51,0.00,CLR,,0.93,WeatherDisplay:10.37,2013-05-02 21:28:00,
2013-05-02 16:30:00,47.0,30.3,30.65,NNE,22,19.1,26.5,52,0.00,CLR,,0.93,WeatherDisplay:10.37,2013-05-02 21:30:00,
2013-05-02 16:32:00,48.0,31.2,30.65,NNW,337,13.9,19.6,52,0.00,CLR,,0.93,WeatherDisplay:10.37,2013-05-02 21:32:00,
2013-05-02 16:33:00,48.0,31.2,30.65,NNW,337,15.1,20.0,52,0.00,CLR,,0.93,WeatherDisplay:10.37,2013-05-02 21:33:00,
2013-05-02 16:35:00,48.0,31.2,30.65,NNE,22,22.9,34.5,52,0.00,CLR,,0.93,WeatherDisplay:10.37,2013-05-02 21:35:00,
2013-05-02 16:37:00,48.0,31.7,30.64,NNE,22,12.3,26.5,53,0.00,CLR,,0.93,WeatherDisplay:10.37,2013-05-02 21:37:00,
2013-05-02 16:38:00,48.0,30.7,30.64,NNW,337,18.6,25.3,51,0.00,CLR,,0.93,WeatherDisplay:10.37,2013-05-02 21:38:00,
2013-05-02 16:40:00,48.0,31.2,30.64,NNW,337,20.5,29.9,52,0.00,CLR,,0.93,WeatherDisplay:10.37,2013-05-02 21:40:00,
2013-05-02 16:42:00,48.0,31.2,30.64,North,360,15.0,23.0,52,0.00,CLR,,0.93,WeatherDisplay:10.37,2013-05-02 21:42:00,
2013-05-02 16:43:00,48.0,30.2,30.64,NNW,337,21.5,26.5,50,0.00,CLR,,0.93,WeatherDisplay:10.37,2013-05-02 21:43:00,
2013-05-02 16:45:00,47.0,28.3,30.64,NNW,337,23.6,27.0,48,0.00,CLR,,0.93,WeatherDisplay:10.37,2013-05-02 21:45:00,
2013-05-02 16:46:00,47.0,29.3,30.63,NNW,337,24.9,33.4,50,0.00,CLR,,0.93,WeatherDisplay:10.37,2013-05-02 21:46:00,
2013-05-02 16:47:00,47.0,29.8,30.63,NNW,337,19.4,27.6,51,0.00,CLR,,0.93,WeatherDisplay:10.37,2013-05-02 21:47:00,
2013-05-02 16:48:00,47.0,29.8,30.63,NNW,337,8.7,26.5,51,0.00,CLR,,0.93,WeatherDisplay:10.37,2013-05-02 21:48:00,
2013-05-02 16:49:00,47.0,29.8,30.63,NNW,337,9.3,23.0,51,0.00,CLR,,0.93,WeatherDisplay:10.37,2013-05-02 21:49:00,
2013-05-02 16:51:00,47.0,30.3,30.63,NNE,22,19.6,26.5,52,0.00,CLR,,0.93,WeatherDisplay:10.37,2013-05-02 21:51:00,
2013-05-02 16:52:00,47.0,30.3,30.63,WSW,247,14.9,26.5,52,0.00,CLR,,0.93,WeatherDisplay:10.37,2013-05-02 21:52:00,
2013-05-02 16:53:00,47.0,30.3,30.63,North,360,14.9,29.9,52,0.00,CLR,,0.93,WeatherDisplay:10.37,2013-05-02 21:53:00,
2013-05-02 16:54:00,47.0,30.3,30.63,NNE,22,17.6,26.5,52,0.00,CLR,,0.93,WeatherDisplay:10.37,2013-05-02 21:54:00,
2013-05-02 16:56:00,47.0,29.8,30.63,North,360,17.0,21.0,51,0.00,CLR,,0.93,WeatherDisplay:10.37,2013-05-02 21:56:00,
2013-05-02 16:58:00,47.0,30.3,30.63,NNW,337,13.6,26.5,52,0.00,CLR,,0.93,WeatherDisplay:10.37,2013-05-02 21:58:00,
2013-05-02 16:59:00,47.0,30.7,30.63,NNW,337,15.2,19.6,53,0.00,CLR,,0.93,WeatherDisplay:10.37,2013-05-02 21:59:00,
2013-05-02 17:01:00,48.0,31.2,30.63,North,360,17.2,25.3,52,0.00,CLR,,0.93,WeatherDisplay:10.37,2013-05-02 22:01:00,
2013-05-02 17:03:00,48.0,30.7,30.63,North,360,15.4,21.9,51,0.00,CLR,,0.93,WeatherDisplay:10.37,2013-05-02 22:03:00,
2013-05-02 17:04:00,48.0,30.2,30.63,North,360,22.0,27.6,50,0.00,CLR,,0.93,WeatherDisplay:10.37,2013-05-02 22:04:00,
2013-05-02 17:07:00,48.0,30.7,30.63,NNW,337,18.9,25.3,51,0.00,CLR,,0.93,WeatherDisplay:10.37,2013-05-02 22:07:00,
2013-05-02 17:08:00,48.0,30.7,30.63,NNW,337,16.7,23.0,51,0.00,CLR,,0.93,WeatherDisplay:10.37,2013-05-02 22:08:00,
2013-05-02 17:09:00,48.0,30.2,30.63,North,360,15.8,23.0,50,0.00,CLR,,0.93,WeatherDisplay:10.37,2013-05-02 22:09:00,
2013-05-02 17:12:00,48.0,30.2,30.63,NNW,337,18.5,29.9,50,0.00,CLR,,0.93,WeatherDisplay:10.37,2013-05-02 22:12:00,
2013-05-02 17:13:00,48.0,30.2,30.63,North,360,16.8,23.0,50,0.00,CLR,,0.93,WeatherDisplay:10.37,2013-05-02 22:13:00,
2013-05-02 17:14:00,48.0,29.2,30.63,North,360,17.1,21.0,48,0.00,CLR,,0.93,WeatherDisplay:10.37,2013-05-02 22:14:00,
2013-05-02 17:15:00,48.0,29.2,30.63,North,360,19.2,26.5,48,0.00,CLR,,0.93,WeatherDisplay:10.37,2013-05-02 22:15:00,
2013-05-02 17:17:00,48.0,28.7,30.63,NNW,337,23.2,28.8,47,0.00,CLR,,0.93,WeatherDisplay:10.37,2013-05-02 22:17:00,
2013-05-02 17:18:00,48.0,29.2,30.63,North,360,16.9,26.5,48,0.00,CLR,,0.93,WeatherDisplay:10.37,2013-05-02 22:18:00,
2013-05-02 17:20:00,48.0,28.7,30.63,NNW,337,17.3,21.9,47,0.00,CLR,,0.93,WeatherDisplay:10.37,2013-05-02 22:20:00,
2013-05-02 17:22:00,48.0,30.2,30.63,NNW,337,15.8,19.6,50,0.00,CLR,,0.93,WeatherDisplay:10.37,2013-05-02 22:22:00,
2013-05-02 17:23:00,48.0,29.7,30.63,NNE,22,16.6,23.0,49,0.00,CLR,,0.93,WeatherDisplay:10.37,2013-05-02 22:23:00,
2013-05-02 17:25:00,47.0,28.3,30.63,NNW,337,18.5,26.5,48,0.00,CLR,,0.93,WeatherDisplay:10.37,2013-05-02 22:25:00,
2013-05-02 17:27:00,47.0,28.3,30.63,NNW,337,20.7,27.0,48,0.00,CLR,,0.93,WeatherDisplay:10.37,2013-05-02 22:27:00,
2013-05-02 17:28:00,47.0,28.3,30.63,WSW,247,13.5,27.6,48,0.00,CLR,,0.93,WeatherDisplay:10.37,2013-05-02 22:28:00,
2013-05-02 17:30:00,47.0,28.3,30.63,NNW,337,17.7,29.9,48,0.00,CLR,,0.93,WeatherDisplay:10.37,2013-05-02 22:30:00,
2013-05-02 17:32:00,47.0,28.3,30.63,NNW,337,15.3,28.8,48,0.00,CLR,,0.93,WeatherDisplay:10.37,2013-05-02 22:32:00,
2013-05-02 17:34:00,47.0,28.8,30.63,NNW,337,15.9,22.0,49,0.00,CLR,,0.93,WeatherDisplay:10.37,2013-05-02 22:34:00,
2013-05-02 17:35:00,47.0,28.3,30.63,NNE,22,20.3,26.5,48,0.00,CLR,,0.93,WeatherDisplay:10.37,2013-05-02 22:35:00,
2013-05-02 17:36:00,47.0,27.8,30.63,NNW,337,18.1,26.5,47,0.00,CLR,,0.93,WeatherDisplay:10.37,2013-05-02 22:36:00,
2013-05-02 17:37:00,47.0,28.3,30.63,NNW,337,19.8,28.8,48,0.00,CLR,,0.93,WeatherDisplay:10.37,2013-05-02 22:37:00,
2013-05-02 17:39:00,47.0,29.3,30.63,NNW,337,15.1,26.5,50,0.00,CLR,,0.93,WeatherDisplay:10.37,2013-05-02 22:39:00,
2013-05-02 17:41:00,47.0,29.3,30.63,North,360,14.9,19.6,50,0.00,CLR,,0.93,WeatherDisplay:10.37,2013-05-02 22:41:00,
2013-05-02 17:42:00,47.0,30.3,30.63,NNW,337,15.3,19.6,52,0.00,CLR,,0.93,WeatherDisplay:10.37,2013-05-02 22:42:00,
2013-05-02 17:43:00,47.0,30.3,30.63,NNW,337,14.6,18.4,52,0.00,CLR,,0.93,WeatherDisplay:10.37,2013-05-02 22:43:00,
2013-05-02 17:44:00,47.0,30.3,30.63,North,360,9.6,15.0,52,0.00,CLR,,0.93,WeatherDisplay:10.37,2013-05-02 22:44:00,
2013-05-02 17:46:00,47.0,28.8,30.63,NNW,337,14.9,21.9,49,0.00,CLR,,0.93,WeatherDisplay:10.37,2013-05-02 22:46:00,
2013-05-02 17:47:00,47.0,28.3,30.63,NNE,22,15.6,24.0,48,0.00,CLR,,0.93,WeatherDisplay:10.37,2013-05-02 22:47:00,
2013-05-02 17:48:00,47.0,28.3,30.63,NNW,337,17.0,24.2,48,0.00,CLR,,0.93,WeatherDisplay:10.37,2013-05-02 22:48:00,
2013-05-02 17:49:00,47.0,28.8,30.63,North,360,17.9,20.7,49,0.00,CLR,,0.93,WeatherDisplay:10.37,2013-05-02 22:49:00,
2013-05-02 17:51:00,47.0,28.8,30.63,North,360,16.9,19.6,49,0.00,CLR,,0.93,WeatherDisplay:10.37,2013-05-02 22:51:00,
2013-05-02 17:52:00,47.0,28.8,30.63,WSW,247,11.0,20.7,49,0.00,CLR,,0.93,WeatherDisplay:10.37,2013-05-02 22:52:00,
2013-05-02 17:53:00,48.0,29.7,30.63,NNW,337,9.2,19.6,49,0.00,CLR,,0.93,WeatherDisplay:10.37,2013-05-02 22:53:00,
2013-05-02 17:54:00,48.0,29.2,30.63,NNW,337,16.8,21.0,48,0.00,CLR,,0.93,WeatherDisplay:10.37,2013-05-02 22:54:00,
2013-05-02 17:56:00,48.0,29.2,30.63,NNW,337,13.0,20.7,48,0.00,CLR,,0.93,WeatherDisplay:10.37,2013-05-02 22:56:00,
2013-05-02 17:57:00,48.0,30.2,30.63,NNE,22,13.9,23.0,50,0.00,CLR,,0.93,WeatherDisplay:10.37,2013-05-02 22:57:00,
2013-05-02 17:58:00,48.0,29.2,30.63,NNW,337,13.7,20.7,48,0.00,CLR,,0.93,WeatherDisplay:10.37,2013-05-02 22:58:00,
2013-05-02 18:00:00,48.0,29.7,30.63,NNW,337,13.5,19.6,49,0.00,CLR,,0.93,WeatherDisplay:10.37,2013-05-02 23:00:00,
2013-05-02 18:02:00,48.0,30.2,30.63,NNE,22,15.1,26.5,50,0.00,CLR,,0.93,WeatherDisplay:10.37,2013-05-02 23:02:00,
2013-05-02 18:03:00,48.0,29.7,30.63,NNW,337,14.6,19.6,49,0.00,CLR,,0.93,WeatherDisplay:10.37,2013-05-02 23:03:00,
2013-05-02 18:05:00,48.0,30.7,30.63,North,360,12.6,17.3,51,0.00,CLR,,0.93,WeatherDisplay:10.37,2013-05-02 23:05:00,
2013-05-02 18:07:00,48.0,30.2,30.63,NNW,337,13.6,21.9,50,0.00,CLR,,0.93,WeatherDisplay:10.37,2013-05-02 23:07:00,
2013-05-02 18:08:00,48.0,28.7,30.63,NNE,22,15.8,19.6,47,0.00,CLR,,0.93,WeatherDisplay:10.37,2013-05-02 23:08:00,
2013-05-02 18:10:00,48.0,30.2,30.63,NNE,22,16.6,19.6,50,0.00,CLR,,0.93,WeatherDisplay:10.37,2013-05-02 23:10:00,
2013-05-02 18:12:00,48.0,30.2,30.63,NNE,22,11.3,21.9,50,0.00,CLR,,0.93,WeatherDisplay:10.37,2013-05-02 23:12:00,
2013-05-02 18:13:00,48.0,30.2,30.63,North,360,11.3,19.6,50,0.00,CLR,,0.93,WeatherDisplay:10.37,2013-05-02 23:13:00,
2013-05-02 18:14:00,49.0,30.1,30.63,North,360,12.6,20.7,48,0.00,CLR,,0.93,WeatherDisplay:10.37,2013-05-02 23:14:00,
2013-05-02 18:15:00,49.0,30.1,30.63,NNE,22,15.5,19.6,48,0.00,CLR,,0.93,WeatherDisplay:10.37,2013-05-02 23:15:00,
2013-05-02 18:17:00,49.0,30.1,30.62,North,360,17.3,20.7,48,0.00,CLR,,0.93,WeatherDisplay:10.37,2013-05-02 23:17:00,
2013-05-02 18:18:00,49.0,31.2,30.62,NNW,337,12.5,23.0,50,0.00,CLR,,0.93,WeatherDisplay:10.37,2013-05-02 23:18:00,
2013-05-02 18:19:00,49.0,31.2,30.62,NNW,337,11.0,13.8,50,0.00,CLR,,0.93,WeatherDisplay:10.37,2013-05-02 23:19:00,
2013-05-02 18:20:00,49.0,29.6,30.62,North,360,13.3,18.0,47,0.00,CLR,,0.93,WeatherDisplay:10.37,2013-05-02 23:20:00,
2013-05-02 18:21:00,49.0,29.6,30.62,NNW,337,14.9,14.9,47,0.00,CLR,,0.93,WeatherDisplay:10.37,2013-05-02 23:21:00,
2013-05-02 18:22:00,49.0,30.7,30.62,NNE,22,12.0,18.4,49,0.00,CLR,,0.93,WeatherDisplay:10.37,2013-05-02 23:22:00,
2013-05-02 18:23:00,48.0,30.2,30.62,North,360,13.5,15.0,50,0.00,CLR,,0.93,WeatherDisplay:10.37,2013-05-02 23:23:00,
2013-05-02 18:24:00,48.0,29.2,30.62,North,360,15.2,23.0,48,0.00,CLR,,0.93,WeatherDisplay:10.37,2013-05-02 23:24:00,
2013-05-02 18:25:00,48.0,31.2,30.62,NNW,337,11.5,20.7,52,0.00,CLR,,0.93,WeatherDisplay:10.37,2013-05-02 23:25:00,
2013-05-02 18:26:00,48.0,30.2,30.62,North,360,14.7,19.6,50,0.00,CLR,,0.93,WeatherDisplay:10.37,2013-05-02 23:26:00,
2013-05-02 18:28:00,48.0,30.2,30.62,North,360,10.8,15.0,50,0.00,CLR,,0.93,WeatherDisplay:10.37,2013-05-02 23:28:00,
2013-05-02 18:29:00,48.0,30.2,30.62,North,360,12.7,19.6,50,0.00,CLR,,0.93,WeatherDisplay:10.37,2013-05-02 23:29:00,
2013-05-02 18:30:00,48.0,30.2,30.62,NNE,22,11.4,19.6,50,0.00,CLR,,0.93,WeatherDisplay:10.37,2013-05-02 23:30:00,
2013-05-02 18:31:00,48.0,30.2,30.62,North,360,13.0,19.6,50,0.00,CLR,,0.93,WeatherDisplay:10.37,2013-05-02 23:31:00,
2013-05-02 18:33:00,48.0,30.7,30.62,NNE,22,10.1,17.0,51,0.00,CLR,,0.93,WeatherDisplay:10.37,2013-05-02 23:33:00,
2013-05-02 18:34:00,48.0,30.7,30.62,North,360,12.1,17.3,51,0.00,CLR,,0.93,WeatherDisplay:10.37,2013-05-02 23:34:00,
2013-05-02 18:35:00,48.0,31.2,30.62,NNW,337,10.6,15.0,52,0.00,CLR,,0.93,WeatherDisplay:10.37,2013-05-02 23:35:00,
2013-05-02 18:36:00,48.0,31.2,30.62,North,360,9.5,15.0,52,0.00,CLR,,0.93,WeatherDisplay:10.37,2013-05-02 23:36:00,
2013-05-02 18:38:00,48.0,31.7,30.62,NNE,22,9.9,13.0,53,0.00,CLR,,0.93,WeatherDisplay:10.37,2013-05-02 23:38:00,
2013-05-02 18:39:00,48.0,31.2,30.62,NNE,22,10.9,16.1,52,0.00,CLR,,0.93,WeatherDisplay:10.37,2013-05-02 23:39:00,
2013-05-02 18:40:00,48.0,31.2,30.62,NNW,337,10.3,15.0,52,0.00,CLR,,0.93,WeatherDisplay:10.37,2013-05-02 23:40:00,
2013-05-02 18:41:00,48.0,31.2,30.62,North,360,11.7,19.0,52,0.00,CLR,,0.93,WeatherDisplay:10.37,2013-05-02 23:41:00,
2013-05-02 18:44:00,48.0,31.2,30.62,North,360,12.7,17.3,52,0.00,CLR,,0.93,WeatherDisplay:10.37,2013-05-02 23:44:00,
2013-05-02 18:45:00,48.0,31.2,30.62,North,360,11.4,15.0,52,0.00,CLR,,0.93,WeatherDisplay:10.37,2013-05-02 23:45:00,
2013-05-02 18:46:00,48.0,31.2,30.62,NNE,22,12.1,16.1,52,0.00,CLR,,0.93,WeatherDisplay:10.37,2013-05-02 23:46:00,
2013-05-02 18:49:00,49.0,31.2,30.61,NE,45,12.7,20.7,50,0.00,CLR,,0.93,WeatherDisplay:10.37,2013-05-02 23:49:00,
2013-05-02 18:51:00,49.0,31.6,30.61,North,360,8.8,13.0,51,0.00,CLR,,0.93,WeatherDisplay:10.37,2013-05-02 23:51:00,
2013-05-02 18:54:00,49.0,32.6,30.61,North,360,7.6,12.7,53,0.00,CLR,,0.93,WeatherDisplay:10.37,2013-05-02 23:54:00,
2013-05-02 18:56:00,50.0,32.1,30.61,NNE,22,12.4,17.3,50,0.00,CLR,,0.93,WeatherDisplay:10.37,2013-05-02 23:56:00,
2013-05-02 18:59:00,49.0,32.1,30.61,NNE,22,10.3,15.0,52,0.00,CLR,,0.93,WeatherDisplay:10.37,2013-05-02 23:59:00,
2013-05-02 19:00:00,49.0,29.6,30.61,North,360,11.6,20.0,47,0.00,CLR,,0.93,WeatherDisplay:10.37,2013-05-03 00:00:00,
2013-05-02 19:01:00,49.0,30.1,30.61,NNE,22,15.6,19.6,48,0.00,CLR,,0.93,WeatherDisplay:10.37,2013-05-03 00:01:00,
2013-05-02 19:02:00,49.0,30.1,30.61,NNE,22,14.0,20.7,48,0.00,CLR,,0.93,WeatherDisplay:10.37,2013-05-03 00:02:00,
2013-05-02 19:04:00,49.0,30.1,30.61,NNE,22,14.0,21.9,48,0.00,CLR,,0.93,WeatherDisplay:10.37,2013-05-03 00:04:00,
2013-05-02 19:05:00,49.0,31.6,30.61,North,360,10.5,20.7,51,0.00,CLR,,0.93,WeatherDisplay:10.37,2013-05-03 00:05:00,
2013-05-02 19:06:00,49.0,32.1,30.61,NW,315,8.7,15.0,52,0.00,CLR,,0.93,WeatherDisplay:10.37,2013-05-03 00:06:00,
2013-05-02 19:07:00,49.0,32.1,30.61,NNE,22,8.2,10.4,52,0.00,CLR,,0.93,WeatherDisplay:10.37,2013-05-03 00:07:00,
2013-05-02 19:10:00,49.0,30.7,30.61,NNE,22,12.2,18.4,49,0.00,CLR,,0.93,WeatherDisplay:10.37,2013-05-03 00:10:00,
2013-05-02 19:11:00,49.0,30.7,30.61,North,360,14.2,18.4,49,0.00,CLR,,0.93,WeatherDisplay:10.37,2013-05-03 00:11:00,
2013-05-02 19:12:00,49.0,30.7,30.61,NNE,22,13.3,20.7,49,0.00,CLR,,0.93,WeatherDisplay:10.37,2013-05-03 00:12:00,
2013-05-02 19:15:00,49.0,29.1,30.61,North,360,12.1,17.3,46,0.00,CLR,,0.93,WeatherDisplay:10.37,2013-05-03 00:15:00,
2013-05-02 19:16:00,49.0,30.1,30.60,NNE,22,11.0,16.1,48,0.00,CLR,,0.93,WeatherDisplay:10.37,2013-05-03 00:16:00,
2013-05-02 19:17:00,49.0,29.6,30.60,NNE,22,14.6,19.6,47,0.00,CLR,,0.93,WeatherDisplay:10.37,2013-05-03 00:17:00,
2013-05-02 19:20:00,48.0,28.7,30.60,North,360,16.4,19.6,47,0.00,CLR,,0.93,WeatherDisplay:10.37,2013-05-03 00:20:00,
2013-05-02 19:21:00,48.0,29.2,30.60,North,360,14.4,24.2,48,0.00,CLR,,0.93,WeatherDisplay:10.37,2013-05-03 00:21:00,
2013-05-02 19:22:00,48.0,29.2,30.60,NNE,22,13.6,19.6,48,0.00,CLR,,0.93,WeatherDisplay:10.37,2013-05-03 00:22:00,
2013-05-02 19:25:00,48.0,28.7,30.60,North,360,18.3,26.5,47,0.00,CLR,,0.93,WeatherDisplay:10.37,2013-05-03 00:25:00,
2013-05-02 19:27:00,48.0,29.2,30.60,North,360,14.3,19.6,48,0.00,CLR,,0.93,WeatherDisplay:10.37,2013-05-03 00:27:00,
2013-05-02 19:28:00,48.0,29.7,30.60,North,360,11.1,18.4,49,0.00,CLR,,0.93,WeatherDisplay:10.37,2013-05-03 00:28:00,
2013-05-02 19:30:00,48.0,29.2,30.60,North,360,12.0,18.4,48,0.00,CLR,,0.93,WeatherDisplay:10.37,2013-05-03 00:30:00,
2013-05-02 19:31:00,48.0,29.2,30.60,NNE,22,11.6,17.3,48,0.00,CLR,,0.93,WeatherDisplay:10.37,2013-05-03 00:31:00,
2013-05-02 19:32:00,48.0,29.7,30.60,NNE,22,12.5,18.4,49,0.00,CLR,,0.93,WeatherDisplay:10.37,2013-05-03 00:32:00,
2013-05-02 19:33:00,48.0,29.7,30.60,NNE,22,12.0,16.1,49,0.00,CLR,,0.93,WeatherDisplay:10.37,2013-05-03 00:33:00,
2013-05-02 19:35:00,48.0,29.2,30.60,NNE,22,13.3,20.7,48,0.00,CLR,,0.93,WeatherDisplay:10.37,2013-05-03 00:35:00,
2013-05-02 19:36:00,48.0,29.2,30.60,WSW,247,7.7,19.6,48,0.00,CLR,,0.93,WeatherDisplay:10.37,2013-05-03 00:36:00,
2013-05-02 19:37:00,48.0,29.7,30.61,NNE,22,11.3,16.1,49,0.00,CLR,,0.93,WeatherDisplay:10.37,2013-05-03 00:37:00,
2013-05-02 19:38:00,48.0,29.7,30.61,NNE,22,10.9,19.6,49,0.00,CLR,,0.93,WeatherDisplay:10.37,2013-05-03 00:38:00,
2013-05-02 19:40:00,47.0,28.3,30.61,NNE,22,12.9,19.6,48,0.00,CLR,,0.93,WeatherDisplay:10.37,2013-05-03 00:40:00,
2013-05-02 19:42:00,47.0,28.3,30.61,NNW,337,10.9,15.0,48,0.00,CLR,,0.93,WeatherDisplay:10.37,2013-05-03 00:42:00,
2013-05-02 19:43:00,47.0,28.3,30.61,NNE,22,12.3,19.6,48,0.00,CLR,,0.93,WeatherDisplay:10.37,2013-05-03 00:43:00,
2013-05-02 19:44:00,47.0,28.3,30.61,NNE,22,11.9,17.3,48,0.00,CLR,,0.93,WeatherDisplay:10.37,2013-05-03 00:44:00,
2013-05-02 19:46:00,47.0,28.8,30.61,North,360,14.4,18.4,49,0.00,CLR,,0.93,WeatherDisplay:10.37,2013-05-03 00:46:00,
2013-05-02 19:47:00,47.0,29.3,30.61,NNE,22,11.5,18.4,50,0.00,CLR,,0.93,WeatherDisplay:10.37,2013-05-03 00:47:00,
2013-05-02 19:48:00,47.0,29.3,30.61,NNE,22,11.8,16.1,50,0.00,CLR,,0.93,WeatherDisplay:10.37,2013-05-03 00:48:00,
2013-05-02 19:49:00,47.0,28.8,30.61,NNE,22,15.4,21.9,49,0.00,CLR,,0.93,WeatherDisplay:10.37,2013-05-03 00:49:00,
2013-05-02 19:51:00,47.0,29.8,30.61,North,360,11.1,17.3,51,0.00,CLR,,0.93,WeatherDisplay:10.37,2013-05-03 00:51:00,
2013-05-02 19:52:00,47.0,29.3,30.61,NNE,22,11.0,15.0,50,0.00,CLR,,0.93,WeatherDisplay:10.37,2013-05-03 00:52:00,
2013-05-02 19:53:00,47.0,29.8,30.61,NNE,22,11.7,16.1,51,0.00,CLR,,0.93,WeatherDisplay:10.37,2013-05-03 00:53:00,
2013-05-02 19:54:00,47.0,28.8,30.61,NNE,22,11.6,15.0,49,0.00,CLR,,0.93,WeatherDisplay:10.37,2013-05-03 00:54:00,
2013-05-02 19:56:00,47.0,29.3,30.61,North,360,11.7,18.4,50,0.00,CLR,,0.93,WeatherDisplay:10.37,2013-05-03 00:56:00,
2013-05-02 19:57:00,47.0,29.3,30.61,North,360,9.4,15.0,50,0.00,CLR,,0.93,WeatherDisplay:10.37,2013-05-03 00:57:00,
2013-05-02 19:58:00,47.0,29.3,30.61,North,360,10.9,18.0,50,0.00,CLR,,0.93,WeatherDisplay:10.37,2013-05-03 00:58:00,
2013-05-02 19:59:00,46.0,28.4,30.61,NNE,22,10.6,18.4,50,0.00,CLR,,0.93,WeatherDisplay:10.37,2013-05-03 00:59:00,
2013-05-02 20:00:00,46.0,28.4,30.61,NNE,22,10.6,18.4,50,0.00,CLR,,0.93,WeatherDisplay:10.37,2013-05-03 01:00:00,
2013-05-02 20:01:00,46.0,28.4,30.61,North,360,10.3,19.6,50,0.00,CLR,,0.93,WeatherDisplay:10.37,2013-05-03 01:01:00,
2013-05-02 20:02:00,46.0,28.4,30.61,NNE,22,11.0,12.7,50,0.00,CLR,,0.93,WeatherDisplay:10.37,2013-05-03 01:02:00,
2013-05-02 20:03:00,46.0,29.3,30.61,North,360,9.2,15.0,52,0.00,CLR,,0.93,WeatherDisplay:10.37,2013-05-03 01:03:00,
2013-05-02 20:04:00,46.0,29.3,30.61,North,360,11.1,14.0,52,0.00,CLR,,0.93,WeatherDisplay:10.37,2013-05-03 01:04:00,
2013-05-02 20:05:00,46.0,29.3,30.61,North,360,10.8,16.1,52,0.00,CLR,,0.93,WeatherDisplay:10.37,2013-05-03 01:05:00,
2013-05-02 20:06:00,46.0,29.3,30.61,NNE,22,8.6,13.8,52,0.00,CLR,,0.93,WeatherDisplay:10.37,2013-05-03 01:06:00,
2013-05-02 20:08:00,46.0,29.8,30.61,NNE,22,9.3,11.5,53,0.00,CLR,,0.93,WeatherDisplay:10.37,2013-05-03 01:08:00,
2013-05-02 20:10:00,46.0,29.8,30.61,NNE,22,8.7,15.0,53,0.00,CLR,,0.93,WeatherDisplay:10.37,2013-05-03 01:10:00,
2013-05-02 20:12:00,45.0,28.9,30.61,NNW,337,10.1,15.0,53,0.00,CLR,,0.93,WeatherDisplay:10.37,2013-05-03 01:12:00,
2013-05-02 20:13:00,45.0,28.9,30.61,NNE,22,8.5,11.5,53,0.00,CLR,,0.93,WeatherDisplay:10.37,2013-05-03 01:13:00,
2013-05-02 20:15:00,45.0,29.3,30.61,North,360,8.5,15.0,54,0.00,CLR,,0.93,WeatherDisplay:10.37,2013-05-03 01:15:00,
2013-05-02 20:17:00,45.0,28.9,30.62,NNW,337,12.0,17.3,53,0.00,CLR,,0.93,WeatherDisplay:10.37,2013-05-03 01:17:00,
2013-05-02 20:18:00,45.0,29.3,30.62,North,360,10.6,13.8,54,0.00,CLR,,0.93,WeatherDisplay:10.37,2013-05-03 01:18:00,
2013-05-02 20:19:00,45.0,29.3,30.62,North,360,7.9,11.5,54,0.00,CLR,,0.93,WeatherDisplay:10.37,2013-05-03 01:19:00,
2013-05-02 20:20:00,45.0,29.3,30.62,NNE,22,9.8,13.8,54,0.00,CLR,,0.93,WeatherDisplay:10.37,2013-05-03 01:20:00,
2013-05-02 20:22:00,45.0,28.9,30.62,NNW,337,10.3,16.1,53,0.00,CLR,,0.93,WeatherDisplay:10.37,2013-05-03 01:22:00,
2013-05-02 20:23:00,45.0,29.3,30.62,NNE,22,8.0,16.1,54,0.00,CLR,,0.93,WeatherDisplay:10.37,2013-05-03 01:23:00,
2013-05-02 20:24:00,45.0,29.3,30.62,NNE,22,9.6,13.8,54,0.00,CLR,,0.93,WeatherDisplay:10.37,2013-05-03 01:24:00,
2013-05-02 20:25:00,45.0,29.3,30.62,North,360,10.4,13.0,54,0.00,CLR,,0.93,WeatherDisplay:10.37,2013-05-03 01:25:00,
2013-05-02 20:27:00,44.0,28.4,30.62,NNE,22,7.9,11.5,54,0.00,CLR,,0.93,WeatherDisplay:10.37,2013-05-03 01:27:00,
2013-05-02 20:28:00,44.0,28.4,30.62,North,360,8.5,11.5,54,0.00,CLR,,0.93,WeatherDisplay:10.37,2013-05-03 01:28:00,
2013-05-02 20:29:00,44.0,28.9,30.62,North,360,9.5,11.5,55,0.00,CLR,,0.93,WeatherDisplay:10.37,2013-05-03 01:29:00,
2013-05-02 20:31:00,44.0,28.9,30.62,NNE,22,6.9,9.2,55,0.00,CLR,,0.93,WeatherDisplay:10.37,2013-05-03 01:31:00,
2013-05-02 20:33:00,44.0,29.3,30.62,NNE,22,9.5,12.7,56,0.00,CLR,,0.93,WeatherDisplay:10.37,2013-05-03 01:33:00,
2013-05-02 20:34:00,44.0,29.7,30.62,North,360,5.9,11.5,57,0.00,CLR,,0.93,WeatherDisplay:10.37,2013-05-03 01:34:00,
2013-05-02 20:36:00,44.0,29.7,30.63,North,360,8.8,11.5,57,0.00,CLR,,0.93,WeatherDisplay:10.37,2013-05-03 01:36:00,
2013-05-02 20:38:00,44.0,30.2,30.63,North,360,8.5,11.5,58,0.00,CLR,,0.93,WeatherDisplay:10.37,2013-05-03 01:38:00,
2013-05-02 20:39:00,44.0,30.2,30.63,NNE,22,8.8,10.4,58,0.00,CLR,,0.93,WeatherDisplay:10.37,2013-05-03 01:39:00,
2013-05-02 20:41:00,43.0,28.8,30.63,North,360,6.0,10.0,57,0.00,CLR,,0.93,WeatherDisplay:10.37,2013-05-03 01:41:00,
2013-05-02 20:43:00,43.0,28.8,30.63,NNW,337,7.6,11.5,57,0.00,CLR,,0.93,WeatherDisplay:10.37,2013-05-03 01:43:00,
2013-05-02 20:44:00,43.0,28.8,30.63,NNE,22,6.9,11.5,57,0.00,CLR,,0.93,WeatherDisplay:10.37,2013-05-03 01:44:00,
2013-05-02 20:46:00,43.0,28.8,30.64,North,360,7.7,11.5,57,0.00,CLR,,0.93,WeatherDisplay:10.37,2013-05-03 01:46:00,
2013-05-02 20:47:00,43.0,28.8,30.64,North,360,6.6,10.0,57,0.00,CLR,,0.93,WeatherDisplay:10.37,2013-05-03 01:47:00,
2013-05-02 20:48:00,43.0,28.8,30.64,North,360,7.7,10.4,57,0.00,CLR,,0.93,WeatherDisplay:10.37,2013-05-03 01:48:00,
2013-05-02 20:49:00,43.0,28.8,30.64,North,360,8.5,10.4,57,0.00,CLR,,0.93,WeatherDisplay:10.37,2013-05-03 01:49:00,
2013-05-02 20:51:00,43.0,28.8,30.64,NNE,22,7.4,10.4,57,0.00,CLR,,0.93,WeatherDisplay:10.37,2013-05-03 01:51:00,
2013-05-02 20:52:00,43.0,29.2,30.64,North,360,7.9,10.4,58,0.00,CLR,,0.93,WeatherDisplay:10.37,2013-05-03 01:52:00,
2013-05-02 20:53:00,43.0,29.2,30.64,North,360,8.1,11.5,58,0.00,CLR,,0.93,WeatherDisplay:10.37,2013-05-03 01:53:00,
2013-05-02 20:55:00,43.0,29.2,30.64,North,360,9.8,13.8,58,0.00,CLR,,0.93,WeatherDisplay:10.37,2013-05-03 01:55:00,
2013-05-02 20:57:00,43.0,29.2,30.63,North,360,9.1,11.5,58,0.00,CLR,,0.93,WeatherDisplay:10.37,2013-05-03 01:57:00,
2013-05-02 20:58:00,43.0,29.6,30.63,North,360,6.3,10.4,59,0.00,CLR,,0.93,WeatherDisplay:10.37,2013-05-03 01:58:00,
2013-05-02 20:59:00,43.0,29.6,30.63,NNE,22,5.7,9.2,59,0.00,CLR,,0.93,WeatherDisplay:10.37,2013-05-03 01:59:00,
2013-05-02 21:00:00,43.0,29.6,30.63,North,360,6.3,8.1,59,0.00,CLR,,0.93,WeatherDisplay:10.37,2013-05-03 02:00:00,
2013-05-02 21:02:00,42.0,29.1,30.63,NNW,337,6.2,8.1,60,0.00,CLR,,0.93,WeatherDisplay:10.37,2013-05-03 02:02:00,
2013-05-02 21:03:00,42.0,29.1,30.63,NNE,22,5.1,8.1,60,0.00,CLR,,0.93,WeatherDisplay:10.37,2013-05-03 02:03:00,
2013-05-02 21:05:00,42.0,29.1,30.63,North,360,6.4,9.0,60,0.00,CLR,,0.93,WeatherDisplay:10.37,2013-05-03 02:05:00,
2013-05-02 21:07:00,42.0,29.5,30.64,North,360,6.5,10.4,61,0.00,CLR,,0.93,WeatherDisplay:10.37,2013-05-03 02:07:00,
2013-05-02 21:09:00,42.0,29.5,30.64,NNE,22,7.4,10.4,61,0.00,CLR,,0.93,WeatherDisplay:10.37,2013-05-03 02:09:00,
2013-05-02 21:10:00,42.0,29.5,30.64,North,360,7.5,10.4,61,0.00,CLR,,0.93,WeatherDisplay:10.37,2013-05-03 02:10:00,
2013-05-02 21:11:00,42.0,29.5,30.64,North,360,8.6,11.5,61,0.00,CLR,,0.93,WeatherDisplay:10.37,2013-05-03 02:11:00,
2013-05-02 21:12:00,42.0,29.5,30.64,WSW,247,4.5,11.5,61,0.00,CLR,,0.93,WeatherDisplay:10.37,2013-05-03 02:12:00,
2013-05-02 21:13:00,42.0,29.5,30.64,NNW,337,7.5,10.4,61,0.00,CLR,,0.93,WeatherDisplay:10.37,2013-05-03 02:13:00,
2013-05-02 21:14:00,42.0,29.5,30.64,North,360,5.4,6.9,61,0.00,CLR,,0.93,WeatherDisplay:10.37,2013-05-03 02:14:00,
2013-05-02 21:15:00,42.0,29.5,30.64,North,360,6.1,7.0,61,0.00,CLR,,0.93,WeatherDisplay:10.37,2013-05-03 02:15:00,
2013-05-02 21:16:00,42.0,29.5,30.65,NNE,22,5.7,9.2,61,0.00,CLR,,0.93,WeatherDisplay:10.37,2013-05-03 02:16:00,
2013-05-02 21:17:00,42.0,29.5,30.65,North,360,7.8,9.2,61,0.00,CLR,,0.93,WeatherDisplay:10.37,2013-05-03 02:17:00,
2013-05-02 21:18:00,42.0,29.5,30.65,NNE,22,3.7,10.4,61,0.00,CLR,,0.93,WeatherDisplay:10.37,2013-05-03 02:18:00,
2013-05-02 21:20:00,42.0,29.5,30.65,NNE,22,6.5,9.2,61,0.00,CLR,,0.93,WeatherDisplay:10.37,2013-05-03 02:20:00,
2013-05-02 21:21:00,42.0,29.5,30.65,NNE,22,4.8,8.1,61,0.00,CLR,,0.93,WeatherDisplay:10.37,2013-05-03 02:21:00,
2013-05-02 21:23:00,42.0,29.5,30.65,North,360,5.6,9.2,61,0.00,CLR,,0.93,WeatherDisplay:10.37,2013-05-03 02:23:00,
2013-05-02 21:24:00,41.0,28.6,30.65,North,360,4.2,7.0,61,0.00,CLR,,0.93,WeatherDisplay:10.37,2013-05-03 02:24:00,
2013-05-02 21:25:00,41.0,28.6,30.65,North,360,5.7,8.1,61,0.00,CLR,,0.93,WeatherDisplay:10.37,2013-05-03 02:25:00,
2013-05-02 21:26:00,41.0,28.6,30.65,North,360,6.1,8.1,61,0.00,CLR,,0.93,WeatherDisplay:10.37,2013-05-03 02:26:00,
2013-05-02 21:28:00,41.0,28.6,30.65,NNE,22,6.2,8.1,61,0.00,CLR,,0.93,WeatherDisplay:10.37,2013-05-03 02:28:00,
2013-05-02 21:29:00,41.0,28.6,30.65,NNE,22,6.5,8.1,61,0.00,CLR,,0.93,WeatherDisplay:10.37,2013-05-03 02:29:00,
2013-05-02 21:30:00,41.0,28.6,30.65,NNE,22,5.3,8.1,61,0.00,CLR,,0.93,WeatherDisplay:10.37,2013-05-03 02:30:00,
2013-05-02 21:31:00,41.0,28.6,30.65,NNE,22,6.3,9.2,61,0.00,CLR,,0.93,WeatherDisplay:10.37,2013-05-03 02:31:00,
2013-05-02 21:34:00,41.0,28.6,30.65,NNE,22,6.2,8.1,61,0.00,CLR,,0.93,WeatherDisplay:10.37,2013-05-03 02:34:00,
2013-05-02 21:35:00,41.0,28.6,30.65,NNE,22,8.2,9.2,61,0.00,CLR,,0.93,WeatherDisplay:10.37,2013-05-03 02:35:00,
2013-05-02 21:36:00,41.0,28.2,30.65,NNW,337,8.7,11.5,60,0.00,CLR,,0.93,WeatherDisplay:10.37,2013-05-03 02:36:00,
2013-05-02 21:39:00,41.0,28.6,30.65,NNE,22,6.2,8.1,61,0.00,CLR,,0.93,WeatherDisplay:10.37,2013-05-03 02:39:00,
2013-05-02 21:40:00,41.0,28.6,30.65,North,360,5.2,8.1,61,0.00,CLR,,0.93,WeatherDisplay:10.37,2013-05-03 02:40:00,
2013-05-02 21:41:00,41.0,28.6,30.65,North,360,4.9,6.9,61,0.00,CLR,,0.93,WeatherDisplay:10.37,2013-05-03 02:41:00,
2013-05-02 21:45:00,41.0,28.6,30.65,NNE,22,4.4,6.9,61,0.00,CLR,,0.93,WeatherDisplay:10.37,2013-05-03 02:45:00,
2013-05-02 21:46:00,41.0,28.6,30.65,NNE,22,5.1,6.9,61,0.00,CLR,,0.93,WeatherDisplay:10.37,2013-05-03 02:46:00,
2013-05-02 21:50:00,40.0,28.4,30.65,North,360,5.7,8.1,63,0.00,CLR,,0.93,WeatherDisplay:10.37,2013-05-03 02:50:00,
2013-05-02 21:51:00,40.0,28.0,30.65,North,360,6.6,9.2,62,0.00,CLR,,0.93,WeatherDisplay:10.37,2013-05-03 02:51:00,
2013-05-02 21:55:00,40.0,28.0,30.65,North,360,6.3,9.2,62,0.00,CLR,,0.93,WeatherDisplay:10.37,2013-05-03 02:55:00,
2013-05-02 21:56:00,40.0,28.0,30.65,NNE,22,5.5,6.9,62,0.00,CLR,,0.93,WeatherDisplay:10.37,2013-05-03 02:56:00,
2013-05-02 21:57:00,40.0,28.0,30.65,North,360,6.3,9.2,62,0.00,CLR,,0.93,WeatherDisplay:10.37,2013-05-03 02:57:00,
2013-05-02 22:00:00,40.0,28.4,30.65,NNW,337,5.5,8.1,63,0.00,CLR,,0.93,WeatherDisplay:10.37,2013-05-03 03:00:00,
2013-05-02 22:01:00,40.0,28.4,30.65,NNE,22,4.4,6.9,63,0.00,CLR,,0.93,WeatherDisplay:10.37,2013-05-03 03:01:00,
2013-05-02 22:02:00,40.0,28.4,30.65,NNE,22,5.1,7.0,63,0.00,CLR,,0.93,WeatherDisplay:10.37,2013-05-03 03:02:00,
2013-05-02 22:05:00,39.0,27.8,30.65,NNE,22,5.2,8.0,64,0.00,CLR,,0.93,WeatherDisplay:10.37,2013-05-03 03:05:00,
2013-05-02 22:06:00,40.0,28.8,30.66,NNE,22,6.5,8.1,64,0.00,CLR,,0.93,WeatherDisplay:10.37,2013-05-03 03:06:00,
2013-05-02 22:07:00,40.0,28.8,30.66,WSW,247,3.8,8.1,64,0.00,CLR,,0.93,WeatherDisplay:10.37,2013-05-03 03:07:00,
2013-05-02 22:10:00,39.0,27.8,30.66,NNE,22,4.1,8.1,64,0.00,CLR,,0.93,WeatherDisplay:10.37,2013-05-03 03:10:00,
2013-05-02 22:11:00,39.0,27.8,30.66,North,360,5.1,6.0,64,0.00,CLR,,0.93,WeatherDisplay:10.37,2013-05-03 03:11:00,
2013-05-02 22:12:00,39.0,27.8,30.66,North,360,5.1,6.9,64,0.00,CLR,,0.93,WeatherDisplay:10.37,2013-05-03 03:12:00,
2013-05-02 22:15:00,39.0,27.8,30.66,NNE,22,5.0,5.8,64,0.00,CLR,,0.93,WeatherDisplay:10.37,2013-05-03 03:15:00,
2013-05-02 22:16:00,39.0,27.8,30.65,NNE,22,3.9,5.8,64,0.00,CLR,,0.93,WeatherDisplay:10.37,2013-05-03 03:16:00,
2013-05-02 22:17:00,39.0,28.2,30.65,North,360,3.8,5.0,65,0.00,CLR,,0.93,WeatherDisplay:10.37,2013-05-03 03:17:00,
2013-05-02 22:18:00,39.0,28.2,30.65,North,360,4.1,4.6,65,0.00,CLR,,0.93,WeatherDisplay:10.37,2013-05-03 03:18:00,
2013-05-02 22:20:00,39.0,28.2,30.65,North,360,4.6,6.9,65,0.00,CLR,,0.93,WeatherDisplay:10.37,2013-05-03 03:20:00,
2013-05-02 22:21:00,39.0,28.2,30.65,North,360,4.1,4.6,65,0.00,CLR,,0.93,WeatherDisplay:10.37,2013-05-03 03:21:00,
2013-05-02 22:22:00,39.0,28.6,30.65,North,360,4.7,5.8,66,0.00,CLR,,0.93,WeatherDisplay:10.37,2013-05-03 03:22:00,
2013-05-02 22:23:00,39.0,28.6,30.65,North,360,5.1,6.9,66,0.00,CLR,,0.93,WeatherDisplay:10.37,2013-05-03 03:23:00,
2013-05-02 22:26:00,39.0,28.6,30.65,NNE,22,4.7,5.8,66,0.00,CLR,,0.93,WeatherDisplay:10.37,2013-05-03 03:26:00,
2013-05-02 22:27:00,38.0,27.6,30.66,North,360,4.3,6.9,66,0.00,CLR,,0.93,WeatherDisplay:10.37,2013-05-03 03:27:00,
2013-05-02 22:28:00,38.0,27.6,30.66,North,360,4.9,5.8,66,0.00,CLR,,0.93,WeatherDisplay:10.37,2013-05-03 03:28:00,
2013-05-02 22:31:00,38.0,28.0,30.66,North,360,4.8,5.8,67,0.00,CLR,,0.93,WeatherDisplay:10.37,2013-05-03 03:31:00,
2013-05-02 22:32:00,38.0,28.4,30.66,NNE,22,6.1,7.0,68,0.00,CLR,,0.93,WeatherDisplay:10.37,2013-05-03 03:32:00,
2013-05-02 22:33:00,38.0,28.4,30.66,North,360,6.3,9.2,68,0.00,CLR,,0.93,WeatherDisplay:10.37,2013-05-03 03:33:00,
2013-05-02 22:36:00,38.0,28.0,30.66,NNW,337,5.0,6.9,67,0.00,CLR,,0.93,WeatherDisplay:10.37,2013-05-03 03:36:00,
2013-05-02 22:37:00,38.0,28.4,30.66,NNE,22,2.3,6.9,68,0.00,CLR,,0.93,WeatherDisplay:10.37,2013-05-03 03:37:00,
2013-05-02 22:38:00,38.0,28.4,30.66,NNE,22,2.3,6.9,68,0.00,CLR,,0.93,WeatherDisplay:10.37,2013-05-03 03:38:00,
2013-05-02 22:42:00,38.0,28.4,30.66,North,360,4.2,6.0,68,0.00,CLR,,0.93,WeatherDisplay:10.37,2013-05-03 03:42:00,
2013-05-02 22:43:00,38.0,28.4,30.66,North,360,6.0,7.0,68,0.00,CLR,,0.93,WeatherDisplay:10.37,2013-05-03 03:43:00,
2013-05-02 22:44:00,38.0,28.4,30.66,North,360,5.6,6.9,68,0.00,CLR,,0.93,WeatherDisplay:10.37,2013-05-03 03:44:00,
2013-05-02 22:47:00,38.0,28.4,30.66,WSW,247,6.0,9.2,68,0.00,CLR,,0.93,WeatherDisplay:10.37,2013-05-03 03:47:00,
2013-05-02 22:48:00,38.0,28.7,30.66,North,360,6.1,7.0,69,0.00,CLR,,0.93,WeatherDisplay:10.37,2013-05-03 03:48:00,
2013-05-02 22:49:00,38.0,28.7,30.66,NNE,22,6.6,10.4,69,0.00,CLR,,0.93,WeatherDisplay:10.37,2013-05-03 03:49:00,
2013-05-02 22:52:00,38.0,29.1,30.66,NNW,337,7.3,10.4,70,0.00,CLR,,0.93,WeatherDisplay:10.37,2013-05-03 03:52:00,
2013-05-02 22:53:00,38.0,29.1,30.66,NNW,337,6.1,8.1,70,0.00,CLR,,0.93,WeatherDisplay:10.37,2013-05-03 03:53:00,
2013-05-02 22:54:00,38.0,29.1,30.66,North,360,6.2,8.1,70,0.00,CLR,,0.93,WeatherDisplay:10.37,2013-05-03 03:54:00,
2013-05-02 22:57:00,38.0,29.1,30.66,NNW,337,6.4,8.1,70,0.00,CLR,,0.93,WeatherDisplay:10.37,2013-05-03 03:57:00,
2013-05-02 22:58:00,38.0,29.1,30.66,NNW,337,6.1,6.9,70,0.00,CLR,,0.93,WeatherDisplay:10.37,2013-05-03 03:58:00,
2013-05-02 22:59:00,38.0,29.1,30.66,NNE,22,5.1,6.0,70,0.00,CLR,,0.93,WeatherDisplay:10.37,2013-05-03 03:59:00,
2013-05-02 23:01:00,38.0,29.1,30.66,NNE,22,5.1,8.1,70,0.00,CLR,,0.93,WeatherDisplay:10.37,2013-05-03 04:01:00,
2013-05-02 23:06:00,37.0,28.8,30.66,NNE,22,5.6,6.9,72,0.00,CLR,,0.93,WeatherDisplay:10.37,2013-05-03 04:06:00,
2013-05-02 23:11:00,37.0,28.8,30.66,North,360,6.2,8.1,72,0.00,CLR,,0.93,WeatherDisplay:10.37,2013-05-03 04:11:00,
2013-05-02 23:16:00,38.0,29.4,30.65,North,360,7.3,10.4,71,0.00,CLR,,0.93,WeatherDisplay:10.37,2013-05-03 04:16:00,
2013-05-02 23:17:00,37.0,28.8,30.65,North,360,6.9,8.1,72,0.00,CLR,,0.93,WeatherDisplay:10.37,2013-05-03 04:17:00,
2013-05-02 23:21:00,37.0,28.8,30.65,NNW,337,6.2,8.1,72,0.00,CLR,,0.93,WeatherDisplay:10.37,2013-05-03 04:21:00,
2013-05-02 23:22:00,37.0,28.8,30.65,NNW,337,5.9,9.2,72,0.00,CLR,,0.93,WeatherDisplay:10.37,2013-05-03 04:22:00,
2013-05-02 23:26:00,37.0,29.1,30.65,NNW,337,5.8,9.0,73,0.00,CLR,,0.93,WeatherDisplay:10.37,2013-05-03 04:26:00,
2013-05-02 23:27:00,37.0,29.1,30.65,NNW,337,5.8,9.2,73,0.00,CLR,,0.93,WeatherDisplay:10.37,2013-05-03 04:27:00,
2013-05-02 23:28:00,37.0,29.5,30.65,North,360,5.6,9.2,74,0.00,CLR,,0.93,WeatherDisplay:10.37,2013-05-03 04:28:00,
2013-05-02 23:31:00,37.0,29.5,30.65,North,360,4.7,7.0,74,0.00,CLR,,0.93,WeatherDisplay:10.37,2013-05-03 04:31:00,
2013-05-02 23:32:00,37.0,29.5,30.65,North,360,5.8,9.2,74,0.00,CLR,,0.93,WeatherDisplay:10.37,2013-05-03 04:32:00,
2013-05-02 23:33:00,37.0,29.5,30.65,North,360,5.5,6.9,74,0.00,CLR,,0.93,WeatherDisplay:10.37,2013-05-03 04:33:00,
2013-05-02 23:36:00,37.0,29.5,30.65,North,360,6.1,9.2,74,0.00,CLR,,0.93,WeatherDisplay:10.37,2013-05-03 04:36:00,
2013-05-02 23:37:00,37.0,29.5,30.65,North,360,6.3,8.1,74,0.00,CLR,,0.93,WeatherDisplay:10.37,2013-05-03 04:37:00,
2013-05-02 23:38:00,37.0,29.8,30.65,WSW,247,4.0,6.9,75,0.00,CLR,,0.93,WeatherDisplay:10.37,2013-05-03 04:38:00,
2013-05-02 23:41:00,37.0,30.1,30.65,North,360,7.1,9.2,76,0.00,CLR,,0.93,WeatherDisplay:10.37,2013-05-03 04:41:00,
2013-05-02 23:42:00,37.0,30.1,30.65,North,360,6.5,8.1,76,0.00,CLR,,0.93,WeatherDisplay:10.37,2013-05-03 04:42:00,
2013-05-02 23:43:00,37.0,29.8,30.65,North,360,4.8,6.9,75,0.00,CLR,,0.93,WeatherDisplay:10.37,2013-05-03 04:43:00,
2013-05-02 23:46:00,37.0,29.8,30.65,NNW,337,6.0,8.1,75,0.00,CLR,,0.93,WeatherDisplay:10.37,2013-05-03 04:46:00,
2013-05-02 23:47:00,37.0,29.8,30.65,NNW,337,7.3,9.2,75,0.00,CLR,,0.93,WeatherDisplay:10.37,2013-05-03 04:47:00,
2013-05-02 23:48:00,36.0,29.2,30.65,NNW,337,6.2,8.1,76,0.00,CLR,,0.93,WeatherDisplay:10.37,2013-05-03 04:48:00,
2013-05-02 23:51:00,36.0,29.2,30.65,North,360,5.5,8.1,76,0.00,CLR,,0.93,WeatherDisplay:10.37,2013-05-03 04:51:00,
2013-05-02 23:52:00,36.0,29.2,30.65,North,360,4.3,6.9,76,0.00,CLR,,0.93,WeatherDisplay:10.37,2013-05-03 04:52:00,
2013-05-02 23:53:00,36.0,29.2,30.65,NNE,22,6.1,9.2,76,0.00,CLR,,0.93,WeatherDisplay:10.37,2013-05-03 04:53:00,
2013-05-02 23:57:00,36.0,29.2,30.65,NNW,337,7.8,10.4,76,0.00,CLR,,0.93,WeatherDisplay:10.37,2013-05-03 04:57:00,
2013-05-02 23:58:00,36.0,29.2,30.65,NNW,337,6.3,9.2,76,0.00,CLR,,0.93,WeatherDisplay:10.37,2013-05-03 04:58:00,